| time (UTC) | temp C | wind direction | speed KPH | gust KPH | rain 1hr cm | rain 24hr cm | rain mn cm | humidity % | barometer mb |
| 20260505083825 | 15 | 134 | 11.3 | 22.5 | 0.00 | 0.00 | 0.00 | 51 | 1004.9 |
| 20260505083728 | 15 | 169 | 9.7 | 22.5 | 0.00 | 0.00 | 0.00 | 51 | 1004.9 |
| 20260505083651 | 15 | 197 | 9.7 | 22.5 | 0.00 | 0.00 | 0.00 | 51 | 1004.9 |
| 20260505083624 | 15 | 174 | 11.3 | 22.5 | 0.00 | 0.00 | 0.00 | 51 | 1004.9 |
| 20260505083428 | 15 | 143 | 11.3 | 25.7 | 0.00 | 0.00 | 0.00 | 51 | 1005.0 |
| 20260505083351 | 15 | 174 | 9.7 | 25.7 | 0.00 | 0.00 | 0.00 | 51 | 1005.0 |
| 20260505083256 | 15 | 192 | 8.0 | 17.7 | 0.00 | 0.00 | 0.00 | 51 | 1005.0 |
| 20260505083219 | 15 | 108 | 9.7 | 19.3 | 0.00 | 0.00 | 0.00 | 51 | 1005.0 |
| 20260505083022 | 15 | 142 | 8.0 | 19.3 | 0.00 | 0.00 | 0.00 | 51 | 1004.9 |
| 20260505082924 | 15 | 164 | 11.3 | 19.3 | 0.00 | 0.00 | 0.00 | 51 | 1005.0 |
| 20260505082826 | 15 | 154 | 9.7 | 19.3 | 0.00 | 0.00 | 0.00 | 51 | 1005.0 |
| 20260505082726 | 15 | 108 | 8.0 | 19.3 | 0.00 | 0.00 | 0.00 | 51 | 1004.9 |
| 20260505082530 | 15 | 169 | 9.7 | 19.3 | 0.00 | 0.00 | 0.00 | 51 | 1004.9 |
| 20260505082433 | 15 | 145 | 12.9 | 19.3 | 0.00 | 0.00 | 0.00 | 51 | 1004.9 |
| 20260505082336 | 15 | 161 | 12.9 | 19.3 | 0.00 | 0.00 | 0.00 | 51 | 1005.0 |
| 20260505082257 | 15 | 150 | 12.9 | 19.3 | 0.00 | 0.00 | 0.00 | 51 | 1005.0 |
| 20260505082223 | 15 | 165 | 11.3 | 19.3 | 0.00 | 0.00 | 0.00 | 51 | 1005.0 |
| 20260505082026 | 15 | 130 | 8.0 | 20.9 | 0.00 | 0.00 | 0.00 | 51 | 1005.0 |
| 20260505081929 | 15 | 114 | 9.7 | 20.9 | 0.00 | 0.00 | 0.00 | 51 | 1004.9 |
| 20260505081832 | 15 | 141 | 11.3 | 20.9 | 0.00 | 0.00 | 0.00 | 51 | 1005.0 |
| 20260505081755 | 15 | 122 | 11.3 | 20.9 | 0.00 | 0.00 | 0.00 | 51 | 1005.0 |
| 20260505081716 | 15 | 161 | 11.3 | 20.9 | 0.00 | 0.00 | 0.00 | 51 | 1005.0 |
| 20260505081619 | 15 | 136 | 9.7 | 20.9 | 0.00 | 0.00 | 0.00 | 51 | 1005.0 |
| 20260505081540 | 15 | 152 | 11.3 | 20.9 | 0.00 | 0.00 | 0.00 | 51 | 1005.0 |
| 20260505081412 | 15 | 163 | 14.5 | 20.9 | 0.00 | 0.00 | 0.00 | 51 | 1005.1 |
| 20260505081327 | 15 | 144 | 14.5 | 20.9 | 0.00 | 0.00 | 0.00 | 51 | 1005.0 |
| 20260505081156 | 15 | 200 | 11.3 | 24.1 | 0.00 | 0.00 | 0.00 | 51 | 1005.0 |
| 20260505081102 | 15 | 150 | 12.9 | 24.1 | 0.00 | 0.00 | 0.00 | 51 | 1005.0 |
| 20260505081005 | 15 | 136 | 9.7 | 24.1 | 0.00 | 0.00 | 0.00 | 51 | 1005.0 |
| 20260505080926 | 15 | 184 | 9.7 | 24.1 | 0.00 | 0.00 | 0.00 | 51 | 1004.9 |
| 20260505080728 | 15 | 169 | 11.3 | 25.7 | 0.00 | 0.00 | 0.00 | 51 | 1004.9 |
| 20260505080631 | 15 | 109 | 14.5 | 25.7 | 0.00 | 0.00 | 0.00 | 51 | 1004.9 |
| 20260505080514 | 15 | 137 | 14.5 | 27.4 | 0.00 | 0.00 | 0.00 | 51 | 1005.0 |
| 20260505080448 | 15 | 163 | 14.5 | 27.4 | 0.00 | 0.00 | 0.00 | 51 | 1005.0 |
| 20260505080412 | 15 | 159 | 12.9 | 25.7 | 0.00 | 0.00 | 0.00 | 51 | 1004.9 |
| 20260505080234 | 15 | 150 | 12.9 | 25.7 | 0.00 | 0.00 | 0.00 | 51 | 1004.9 |
| 20260505080200 | 15 | 155 | 14.5 | 25.7 | 0.00 | 0.00 | 0.00 | 51 | 1004.9 |
| 20260505080042 | 15 | 227 | 12.9 | 25.7 | 0.00 | 0.00 | 0.00 | 51 | 1004.9 |
| 20260505075941 | 15 | 186 | 9.7 | 19.3 | 0.00 | 0.00 | 0.00 | 51 | 1004.8 |
| 20260505075825 | 15 | 158 | 9.7 | 19.3 | 0.00 | 0.00 | 0.00 | 51 | 1004.8 |
| 20260505075736 | 15 | 109 | 9.7 | 19.3 | 0.00 | 0.00 | 0.00 | 51 | 1004.8 |
| 20260505075618 | 15 | 151 | 9.7 | 19.3 | 0.00 | 0.00 | 0.00 | 51 | 1004.8 |
| 20260505075540 | 15 | 161 | 11.3 | 19.3 | 0.00 | 0.00 | 0.00 | 51 | 1004.8 |
| 20260505075412 | 15 | 154 | 11.3 | 22.5 | 0.00 | 0.00 | 0.00 | 51 | 1004.8 |
| 20260505075327 | 15 | 159 | 9.7 | 22.5 | 0.00 | 0.00 | 0.00 | 51 | 1004.8 |
| 20260505075157 | 15 | 206 | 6.4 | 22.5 | 0.00 | 0.00 | 0.00 | 51 | 1004.8 |
| 20260505075043 | 15 | 144 | 8.0 | 22.5 | 0.00 | 0.00 | 0.00 | 51 | 1004.8 |
| 20260505074945 | 15 | 174 | 8.0 | 22.5 | 0.00 | 0.00 | 0.00 | 51 | 1004.9 |
| 20260505074907 | 15 | 166 | 8.0 | 22.5 | 0.00 | 0.00 | 0.00 | 51 | 1004.9 |
| 20260505074737 | 15 | 166 | 11.3 | 22.5 | 0.00 | 0.00 | 0.00 | 51 | 1004.9 |
| 20260505074619 | 15 | 182 | 12.9 | 22.5 | 0.00 | 0.00 | 0.00 | 51 | 1004.9 |
| 20260505074541 | 15 | 191 | 11.3 | 22.5 | 0.00 | 0.00 | 0.00 | 51 | 1004.9 |
| 20260505074325 | 15 | 178 | 8.0 | 20.9 | 0.00 | 0.00 | 0.00 | 51 | 1004.8 |
| 20260505074227 | 15 | 163 | 9.7 | 20.9 | 0.00 | 0.00 | 0.00 | 51 | 1004.8 |
| 20260505074130 | 15 | 158 | 12.9 | 20.9 | 0.00 | 0.00 | 0.00 | 51 | 1004.8 |
| 20260505074054 | 15 | 157 | 14.5 | 20.9 | 0.00 | 0.00 | 0.00 | 51 | 1004.8 |
| 20260505074015 | 15 | 143 | 14.5 | 22.5 | 0.00 | 0.00 | 0.00 | 51 | 1004.9 |
| 20260505073829 | 15 | 117 | 11.3 | 16.1 | 0.00 | 0.00 | 0.00 | 51 | 1004.8 |
| 20260505073745 | 15 | 152 | 11.3 | 16.1 | 0.00 | 0.00 | 0.00 | 51 | 1004.8 |
| 20260505073616 | 15 | 134 | 11.3 | 19.3 | 0.00 | 0.00 | 0.00 | 51 | 1004.8 |
| 20260505073537 | 15 | 149 | 9.7 | 19.3 | 0.00 | 0.00 | 0.00 | 51 | 1004.9 |
| 20260505073342 | 15 | 157 | 9.7 | 19.3 | 0.00 | 0.00 | 0.00 | 51 | 1004.8 |
| 20260505073304 | 15 | 197 | 9.7 | 19.3 | 0.00 | 0.00 | 0.00 | 51 | 1004.8 |
| 20260505073208 | 15 | 143 | 9.7 | 19.3 | 0.00 | 0.00 | 0.00 | 51 | 1004.8 |
| 20260505073130 | 15 | 189 | 11.3 | 19.3 | 0.00 | 0.00 | 0.00 | 51 | 1004.9 |
| 20260505072934 | 15 | 150 | 12.9 | 19.3 | 0.00 | 0.00 | 0.00 | 50 | 1004.9 |
| 20260505072837 | 15 | 143 | 12.9 | 20.9 | 0.00 | 0.00 | 0.00 | 51 | 1005.0 |
| 20260505072724 | 15 | 207 | 11.3 | 19.3 | 0.00 | 0.00 | 0.00 | 51 | 1005.0 |
| 20260505072645 | 15 | 167 | 9.7 | 19.3 | 0.00 | 0.00 | 0.00 | 51 | 1005.0 |
| 20260505072517 | 15 | 188 | 9.7 | 19.3 | 0.00 | 0.00 | 0.00 | 50 | 1005.0 |
| 20260505072434 | 15 | 138 | 11.3 | 19.3 | 0.00 | 0.00 | 0.00 | 50 | 1005.0 |
| 20260505072305 | 15 | 165 | 11.3 | 19.3 | 0.00 | 0.00 | 0.00 | 50 | 1005.0 |
| 20260505072226 | 15 | 172 | 11.3 | 19.3 | 0.00 | 0.00 | 0.00 | 51 | 1004.9 |
| 20260505072029 | 15 | 130 | 9.7 | 17.7 | 0.00 | 0.00 | 0.00 | 50 | 1005.0 |
| 20260505071951 | 15 | 189 | 11.3 | 17.7 | 0.00 | 0.00 | 0.00 | 50 | 1005.0 |
| 20260505071834 | 15 | 148 | 11.3 | 17.7 | 0.00 | 0.00 | 0.00 | 51 | 1005.0 |
| 20260505071757 | 15 | 186 | 11.3 | 17.7 | 0.00 | 0.00 | 0.00 | 51 | 1005.0 |
| 20260505071716 | 15 | 175 | 11.3 | 17.7 | 0.00 | 0.00 | 0.00 | 51 | 1005.0 |
| 20260505071545 | 15 | 163 | 12.9 | 17.7 | 0.00 | 0.00 | 0.00 | 50 | 1005.0 |
| 20260505071445 | 15 | 204 | 11.3 | 17.7 | 0.00 | 0.00 | 0.00 | 50 | 1005.0 |
| 20260505071408 | 15 | 179 | 11.3 | 20.9 | 0.00 | 0.00 | 0.00 | 50 | 1005.1 |
| 20260505071311 | 15 | 165 | 9.7 | 16.1 | 0.00 | 0.00 | 0.00 | 51 | 1005.1 |
| 20260505071234 | 15 | 232 | 9.7 | 16.1 | 0.00 | 0.00 | 0.00 | 50 | 1005.1 |
| 20260505071102 | 15 | 189 | 9.7 | 17.7 | 0.00 | 0.00 | 0.00 | 50 | 1005.1 |
| 20260505070936 | 15 | 160 | 8.0 | 17.7 | 0.00 | 0.00 | 0.00 | 50 | 1005.0 |
| 20260505070859 | 15 | 165 | 8.0 | 17.7 | 0.00 | 0.00 | 0.00 | 50 | 1005.0 |
| 20260505070803 | 15 | 201 | 8.0 | 17.7 | 0.00 | 0.00 | 0.00 | 51 | 1005.0 |
| 20260505070704 | 15 | 191 | 9.7 | 17.7 | 0.00 | 0.00 | 0.00 | 51 | 1005.0 |
| 20260505070532 | 15 | 141 | 6.4 | 17.7 | 0.00 | 0.00 | 0.00 | 50 | 1005.0 |
| 20260505070430 | 15 | 184 | 8.0 | 17.7 | 0.00 | 0.00 | 0.00 | 50 | 1005.0 |
| 20260505070239 | 15 | 155 | 9.7 | 17.7 | 0.00 | 0.00 | 0.00 | 50 | 1005.0 |
| 20260505070155 | 15 | 207 | 11.3 | 17.7 | 0.00 | 0.00 | 0.00 | 50 | 1005.0 |
| 20260505070025 | 15 | 159 | 9.7 | 17.7 | 0.00 | 0.00 | 0.00 | 50 | 1005.1 |
| 20260505065926 | 15 | 141 | 8.0 | 17.7 | 0.00 | 0.00 | 0.00 | 50 | 1005.0 |
| 20260505065730 | 15 | 133 | 8.0 | 17.7 | 0.00 | 0.00 | 0.00 | 51 | 1005.0 |
| 20260505065634 | 15 | 170 | 8.0 | 17.7 | 0.00 | 0.00 | 0.00 | 50 | 1005.0 |
| 20260505065537 | 15 | 111 | 9.7 | 17.7 | 0.00 | 0.00 | 0.00 | 50 | 1005.0 |
| 20260505065459 | 15 | 151 | 11.3 | 17.7 | 0.00 | 0.00 | 0.00 | 50 | 1005.0 |
| 20260505065330 | 15 | 146 | 8.0 | 14.5 | 0.00 | 0.00 | 0.00 | 50 | 1005.0 |
| 20260505065226 | 15 | 117 | 8.0 | 14.5 | 0.00 | 0.00 | 0.00 | 50 | 1005.1 |
| 20260505065038 | 15 | 140 | 8.0 | 14.5 | 0.00 | 0.00 | 0.00 | 50 | 1005.1 |
| 20260505064952 | 15 | 137 | 8.0 | 14.5 | 0.00 | 0.00 | 0.00 | 50 | 1005.1 |
| 20260505064800 | 15 | 159 | 8.0 | 14.5 | 0.00 | 0.00 | 0.00 | 50 | 1005.2 |
| 20260505064700 | 15 | 142 | 9.7 | 14.5 | 0.00 | 0.00 | 0.00 | 50 | 1005.2 |
| 20260505064605 | 15 | 153 | 8.0 | 14.5 | 0.00 | 0.00 | 0.00 | 50 | 1005.2 |
| 20260505064528 | 15 | 161 | 8.0 | 14.5 | 0.00 | 0.00 | 0.00 | 50 | 1005.2 |
| 20260505064357 | 15 | 147 | 6.4 | 14.5 | 0.00 | 0.00 | 0.00 | 50 | 1005.2 |
| 20260505064259 | 15 | 150 | 8.0 | 17.7 | 0.00 | 0.00 | 0.00 | 50 | 1005.2 |
| 20260505064200 | 15 | 133 | 9.7 | 17.7 | 0.00 | 0.00 | 0.00 | 50 | 1005.1 |
| 20260505064122 | 15 | 185 | 9.7 | 17.7 | 0.00 | 0.00 | 0.00 | 50 | 1005.1 |
| 20260505063930 | 15 | 159 | 9.7 | 17.7 | 0.00 | 0.00 | 0.00 | 50 | 1005.1 |
| 20260505063833 | 15 | 162 | 11.3 | 17.7 | 0.00 | 0.00 | 0.00 | 50 | 1005.1 |
| 20260505063735 | 15 | 181 | 9.7 | 17.7 | 0.00 | 0.00 | 0.00 | 50 | 1005.0 |
| 20260505063659 | 15 | 177 | 9.7 | 17.7 | 0.00 | 0.00 | 0.00 | 50 | 1005.0 |
| 20260505063619 | 15 | 163 | 11.3 | 17.7 | 0.00 | 0.00 | 0.00 | 50 | 1005.1 |
| 20260505063500 | 15 | 154 | 11.3 | 17.7 | 0.00 | 0.00 | 0.00 | 50 | 1005.0 |
| 20260505063342 | 15 | 220 | 9.7 | 16.1 | 0.00 | 0.00 | 0.00 | 50 | 1005.0 |
| 20260505063223 | 15 | 191 | 8.0 | 16.1 | 0.00 | 0.00 | 0.00 | 50 | 1005.0 |
| 20260505063145 | 15 | 168 | 8.0 | 16.1 | 0.00 | 0.00 | 0.00 | 50 | 1005.0 |
| 20260505063025 | 15 | 136 | 9.7 | 16.1 | 0.00 | 0.00 | 0.00 | 50 | 1005.0 |
| 20260505062929 | 15 | 194 | 9.7 | 16.1 | 0.00 | 0.00 | 0.00 | 50 | 1005.0 |
| 20260505062853 | 15 | 155 | 9.7 | 16.1 | 0.00 | 0.00 | 0.00 | 50 | 1005.0 |
| 20260505062816 | 15 | 159 | 11.3 | 16.1 | 0.00 | 0.00 | 0.00 | 50 | 1005.0 |
| 20260505062638 | 15 | 129 | 12.9 | 17.7 | 0.00 | 0.00 | 0.00 | 50 | 1004.9 |
| 20260505062600 | 15 | 167 | 12.9 | 19.3 | 0.00 | 0.00 | 0.00 | 50 | 1004.9 |
| 20260505062515 | 15 | 146 | 9.7 | 17.7 | 0.00 | 0.00 | 0.00 | 50 | 1004.9 |
| 20260505062324 | 15 | 156 | 8.0 | 19.3 | 0.00 | 0.00 | 0.00 | 50 | 1005.0 |
| 20260505062248 | 15 | 158 | 8.0 | 19.3 | 0.00 | 0.00 | 0.00 | 50 | 1005.0 |
| 20260505062126 | 15 | 136 | 8.0 | 19.3 | 0.00 | 0.00 | 0.00 | 50 | 1005.0 |
| 20260505062032 | 15 | 176 | 9.7 | 19.3 | 0.00 | 0.00 | 0.00 | 50 | 1005.0 |
| 20260505061953 | 15 | 129 | 8.0 | 19.3 | 0.00 | 0.00 | 0.00 | 50 | 1004.9 |
| 20260505061855 | 15 | 106 | 8.0 | 19.3 | 0.00 | 0.00 | 0.00 | 50 | 1004.9 |
| 20260505061758 | 15 | 151 | 11.3 | 19.3 | 0.00 | 0.00 | 0.00 | 50 | 1004.9 |
| 20260505061639 | 15 | 176 | 12.9 | 19.3 | 0.00 | 0.00 | 0.00 | 50 | 1004.9 |
| 20260505061543 | 15 | 173 | 9.7 | 20.9 | 0.00 | 0.00 | 0.00 | 50 | 1004.9 |
| 20260505061505 | 15 | 171 | 8.0 | 17.7 | 0.00 | 0.00 | 0.00 | 50 | 1004.9 |
| 20260505061313 | 15 | 182 | 9.7 | 17.7 | 0.00 | 0.00 | 0.00 | 50 | 1004.8 |
| 20260505061228 | 15 | 148 | 11.3 | 17.7 | 0.00 | 0.00 | 0.00 | 49 | 1004.8 |
| 20260505061100 | 15 | 163 | 8.0 | 20.9 | 0.00 | 0.00 | 0.00 | 49 | 1004.8 |
| 20260505061005 | 15 | 167 | 11.3 | 20.9 | 0.00 | 0.00 | 0.00 | 49 | 1004.8 |
| 20260505060836 | 15 | 163 | 11.3 | 20.9 | 0.00 | 0.00 | 0.00 | 49 | 1004.8 |
| 20260505060730 | 15 | 131 | 12.9 | 20.9 | 0.00 | 0.00 | 0.00 | 49 | 1004.8 |
| 20260505060540 | 15 | 186 | 12.9 | 20.9 | 0.00 | 0.00 | 0.00 | 49 | 1004.9 |
| 20260505060435 | 15 | 132 | 11.3 | 20.9 | 0.00 | 0.00 | 0.00 | 49 | 1004.8 |
| 20260505060332 | 15 | 163 | 11.3 | 20.9 | 0.00 | 0.00 | 0.00 | 49 | 1004.8 |
| 20260505060234 | 15 | 137 | 11.3 | 20.9 | 0.00 | 0.00 | 0.00 | 49 | 1004.7 |
| 20260505060137 | 15 | 198 | 9.7 | 19.3 | 0.00 | 0.00 | 0.00 | 49 | 1004.8 |
| 20260505060059 | 15 | 171 | 8.0 | 19.3 | 0.00 | 0.00 | 0.00 | 49 | 1004.8 |
| 20260505055922 | 15 | 134 | 11.3 | 19.3 | 0.00 | 0.00 | 0.00 | 49 | 1004.8 |
| 20260505055837 | 15 | 199 | 11.3 | 19.3 | 0.00 | 0.00 | 0.00 | 49 | 1004.8 |
| 20260505055645 | 15 | 118 | 11.3 | 19.3 | 0.00 | 0.00 | 0.00 | 49 | 1004.8 |
| 20260505055546 | 15 | 191 | 11.3 | 17.7 | 0.00 | 0.00 | 0.00 | 49 | 1004.8 |
| 20260505055429 | 15 | 119 | 9.7 | 16.1 | 0.00 | 0.00 | 0.00 | 49 | 1004.9 |
| 20260505055352 | 15 | 181 | 8.0 | 16.1 | 0.00 | 0.00 | 0.00 | 49 | 1004.9 |
| 20260505055315 | 15 | 184 | 8.0 | 16.1 | 0.00 | 0.00 | 0.00 | 49 | 1004.8 |
| 20260505055158 | 15 | 156 | 8.0 | 16.1 | 0.00 | 0.00 | 0.00 | 49 | 1004.8 |
| 20260505055120 | 15 | 191 | 8.0 | 17.7 | 0.00 | 0.00 | 0.00 | 49 | 1004.9 |
| 20260505054923 | 15 | 141 | 9.7 | 17.7 | 0.00 | 0.00 | 0.00 | 49 | 1004.8 |
| 20260505054831 | 15 | 169 | 9.7 | 19.3 | 0.00 | 0.00 | 0.00 | 49 | 1004.8 |
| 20260505054723 | 15 | 107 | 9.7 | 19.3 | 0.00 | 0.00 | 0.00 | 49 | 1004.8 |
| 20260505054645 | 15 | 141 | 11.3 | 19.3 | 0.00 | 0.00 | 0.00 | 49 | 1004.8 |
| 20260505054542 | 15 | 164 | 9.7 | 19.3 | 0.00 | 0.00 | 0.00 | 49 | 1004.9 |
| 20260505054423 | 15 | 163 | 8.0 | 22.5 | 0.00 | 0.00 | 0.00 | 49 | 1004.8 |
| 20260505054348 | 15 | 235 | 8.0 | 22.5 | 0.00 | 0.00 | 0.00 | 49 | 1004.8 |
| 20260505054309 | 15 | 168 | 8.0 | 22.5 | 0.00 | 0.00 | 0.00 | 49 | 1004.8 |
| 20260505054151 | 15 | 150 | 11.3 | 22.5 | 0.00 | 0.00 | 0.00 | 49 | 1004.8 |
| 20260505054114 | 15 | 155 | 9.7 | 22.5 | 0.00 | 0.00 | 0.00 | 49 | 1004.8 |
| 20260505053839 | 15 | 158 | 8.0 | 22.5 | 0.00 | 0.00 | 0.00 | 49 | 1004.8 |
| 20260505053713 | 15 | 193 | 8.0 | 22.5 | 0.00 | 0.00 | 0.00 | 49 | 1004.8 |
| 20260505053626 | 15 | 199 | 11.3 | 22.5 | 0.00 | 0.00 | 0.00 | 49 | 1004.8 |
| 20260505053527 | 15 | 102 | 9.7 | 22.5 | 0.00 | 0.00 | 0.00 | 49 | 1004.8 |
| 20260505053357 | 15 | 142 | 8.0 | 17.7 | 0.00 | 0.00 | 0.00 | 49 | 1004.8 |
| 20260505053229 | 15 | 167 | 9.7 | 17.7 | 0.00 | 0.00 | 0.00 | 49 | 1004.8 |
| 20260505053151 | 15 | 146 | 9.7 | 17.7 | 0.00 | 0.00 | 0.00 | 49 | 1004.8 |
| 20260505053053 | 15 | 186 | 8.0 | 17.7 | 0.00 | 0.00 | 0.00 | 49 | 1004.8 |
| 20260505052953 | 15 | 150 | 9.7 | 17.7 | 0.00 | 0.00 | 0.00 | 49 | 1004.8 |
| 20260505052739 | 15 | 119 | 9.7 | 24.1 | 0.00 | 0.00 | 0.00 | 49 | 1004.8 |
| 20260505052642 | 15 | 198 | 9.7 | 24.1 | 0.00 | 0.00 | 0.00 | 49 | 1004.8 |
| 20260505052524 | 15 | 147 | 8.0 | 24.1 | 0.00 | 0.00 | 0.00 | 49 | 1004.9 |
| 20260505052448 | 15 | 182 | 6.4 | 24.1 | 0.00 | 0.00 | 0.00 | 49 | 1004.9 |
| 20260505052323 | 15 | 196 | 6.4 | 24.1 | 0.00 | 0.00 | 0.00 | 49 | 1004.9 |
| 20260505052226 | 15 | 212 | 9.7 | 24.1 | 0.00 | 0.00 | 0.00 | 49 | 1004.9 |
| 20260505052148 | 15 | 182 | 12.9 | 24.1 | 0.00 | 0.00 | 0.00 | 49 | 1004.9 |
| 20260505052109 | 15 | 166 | 14.5 | 24.1 | 0.00 | 0.00 | 0.00 | 49 | 1004.8 |
| 20260505052012 | 15 | 182 | 12.9 | 24.1 | 0.00 | 0.00 | 0.00 | 49 | 1004.9 |
| 20260505051936 | 15 | 165 | 9.7 | 24.1 | 0.00 | 0.00 | 0.00 | 49 | 1004.9 |
| 20260505051807 | 15 | 196 | 8.0 | 24.1 | 0.00 | 0.00 | 0.00 | 49 | 1004.9 |
| 20260505051721 | 15 | 184 | 6.4 | 24.1 | 0.00 | 0.00 | 0.00 | 49 | 1004.9 |
| 20260505051531 | 15 | 184 | 8.0 | 24.1 | 0.00 | 0.00 | 0.00 | 49 | 1004.8 |
| 20260505051445 | 15 | 152 | 9.7 | 24.1 | 0.00 | 0.00 | 0.00 | 49 | 1004.8 |
| 20260505051316 | 15 | 167 | 11.3 | 24.1 | 0.00 | 0.00 | 0.00 | 49 | 1004.9 |
| 20260505051237 | 15 | 157 | 11.3 | 24.1 | 0.00 | 0.00 | 0.00 | 49 | 1004.9 |
| 20260505051109 | 15 | 169 | 8.0 | 24.1 | 0.00 | 0.00 | 0.00 | 49 | 1004.9 |
| 20260505051023 | 15 | 161 | 8.0 | 16.1 | 0.00 | 0.00 | 0.00 | 49 | 1004.9 |
| 20260505050834 | 15 | 214 | 8.0 | 16.1 | 0.00 | 0.00 | 0.00 | 49 | 1004.9 |
| 20260505050733 | 15 | 163 | 6.4 | 16.1 | 0.00 | 0.00 | 0.00 | 49 | 1004.9 |
| 20260505050655 | 15 | 167 | 6.4 | 16.1 | 0.00 | 0.00 | 0.00 | 49 | 1004.9 |
| 20260505050558 | 15 | 163 | 11.3 | 16.1 | 0.00 | 0.00 | 0.00 | 49 | 1004.9 |
| 20260505050437 | 15 | 167 | 8.0 | 16.1 | 0.00 | 0.00 | 0.00 | 49 | 1004.9 |
| 20260505050340 | 15 | 146 | 8.0 | 16.1 | 0.00 | 0.00 | 0.00 | 50 | 1004.9 |
| 20260505050301 | 15 | 125 | 9.7 | 16.1 | 0.00 | 0.00 | 0.00 | 49 | 1005.0 |
| 20260505050123 | 15 | 173 | 9.7 | 16.1 | 0.00 | 0.00 | 0.00 | 50 | 1004.9 |
| 20260505041732 | 13 | 159 | 4.8 | 9.7 | 0.00 | 0.00 | 0.00 | 49 | 1004.8 |
| 20260505041635 | 13 | 157 | 6.4 | 9.7 | 0.00 | 0.00 | 0.00 | 49 | 1004.9 |
| 20260505041558 | 13 | 196 | 6.4 | 9.7 | 0.00 | 0.00 | 0.00 | 49 | 1004.9 |
| 20260505041501 | 13 | 139 | 6.4 | 9.7 | 0.00 | 0.00 | 0.00 | 49 | 1004.9 |
| 20260505041424 | 14 | 155 | 6.4 | 9.7 | 0.00 | 0.00 | 0.00 | 49 | 1004.9 |
| 20260505041227 | 14 | 147 | 4.8 | 12.9 | 0.00 | 0.00 | 0.00 | 49 | 1004.9 |
| 20260505041128 | 14 | 115 | 6.4 | 12.9 | 0.00 | 0.00 | 0.00 | 49 | 1004.9 |
| 20260505041031 | 14 | 121 | 6.4 | 12.9 | 0.00 | 0.00 | 0.00 | 49 | 1004.8 |
| 20260505040958 | 14 | 153 | 6.4 | 12.9 | 0.00 | 0.00 | 0.00 | 49 | 1004.8 |
| 20260505040920 | 14 | 173 | 6.4 | 12.9 | 0.00 | 0.00 | 0.00 | 49 | 1004.8 |
| 20260505040722 | 14 | 117 | 4.8 | 12.9 | 0.00 | 0.00 | 0.00 | 49 | 1004.8 |
| 20260505040645 | 14 | 126 | 6.4 | 12.9 | 0.00 | 0.00 | 0.00 | 49 | 1004.8 |
| 20260505040527 | 14 | 115 | 8.0 | 12.9 | 0.00 | 0.00 | 0.00 | 48 | 1004.9 |
| 20260505040451 | 14 | 167 | 6.4 | 9.7 | 0.00 | 0.00 | 0.00 | 48 | 1004.9 |
| 20260505040405 | 14 | 167 | 6.4 | 9.7 | 0.00 | 0.00 | 0.00 | 48 | 1004.8 |
| 20260505040245 | 14 | 180 | 6.4 | 11.3 | 0.00 | 0.00 | 0.00 | 48 | 1004.9 |
| 20260505040146 | 14 | 188 | 4.8 | 9.7 | 0.00 | 0.00 | 0.00 | 48 | 1004.9 |
| 20260505040025 | 13 | 165 | 4.8 | 11.3 | 0.00 | 0.00 | 0.00 | 48 | 1004.8 |
| 20260505035930 | 13 | 187 | 4.8 | 11.3 | 0.00 | 0.00 | 0.00 | 48 | 1004.8 |
| 20260505035831 | 13 | 186 | 3.2 | 11.3 | 0.00 | 0.00 | 0.00 | 48 | 1004.8 |
| 20260505035754 | 13 | 136 | 4.8 | 11.3 | 0.00 | 0.00 | 0.00 | 48 | 1004.8 |
| 20260505035655 | 13 | 175 | 4.8 | 11.3 | 0.00 | 0.00 | 0.00 | 47 | 1004.8 |
| 20260505035537 | 13 | 167 | 3.2 | 11.3 | 0.00 | 0.00 | 0.00 | 47 | 1004.8 |
| 20260505035441 | 13 | 189 | 4.8 | 11.3 | 0.00 | 0.00 | 0.00 | 47 | 1004.8 |
| 20260505035401 | 13 | 191 | 4.8 | 11.3 | 0.00 | 0.00 | 0.00 | 47 | 1004.8 |
| 20260505035223 | 13 | 162 | 3.2 | 11.3 | 0.00 | 0.00 | 0.00 | 46 | 1004.8 |
| 20260505035146 | 13 | 158 | 4.8 | 11.3 | 0.00 | 0.00 | 0.00 | 46 | 1004.8 |
| 20260505035112 | 13 | 154 | 6.4 | 11.3 | 0.00 | 0.00 | 0.00 | 46 | 1004.8 |
| 20260505034936 | 13 | 169 | 6.4 | 11.3 | 0.00 | 0.00 | 0.00 | 46 | 1004.8 |
| 20260505034907 | 13 | 146 | 6.4 | 11.3 | 0.00 | 0.00 | 0.00 | 45 | 1004.8 |
| 20260505034740 | 13 | 153 | 4.8 | 9.7 | 0.00 | 0.00 | 0.00 | 45 | 1004.9 |
| 20260505034642 | 13 | 150 | 4.8 | 8.0 | 0.00 | 0.00 | 0.00 | 44 | 1004.8 |
| 20260505034525 | 13 | 150 | 4.8 | 9.7 | 0.00 | 0.00 | 0.00 | 44 | 1004.9 |
| 20260505034447 | 12 | 127 | 3.2 | 9.7 | 0.00 | 0.00 | 0.00 | 44 | 1004.9 |
| 20260505034342 | 12 | 155 | 3.2 | 9.7 | 0.00 | 0.00 | 0.00 | 43 | 1004.9 |
| 20260505034230 | 12 | 164 | 3.2 | 9.7 | 0.00 | 0.00 | 0.00 | 43 | 1004.9 |
| 20260505034151 | 12 | 159 | 3.2 | 9.7 | 0.00 | 0.00 | 0.00 | 43 | 1004.9 |
| 20260505033933 | 12 | 142 | 4.8 | 9.7 | 0.00 | 0.00 | 0.00 | 42 | 1004.9 |
| 20260505033837 | 12 | 155 | 4.8 | 9.7 | 0.00 | 0.00 | 0.00 | 41 | 1004.8 |
| 20260505033740 | 12 | 117 | 3.2 | 11.3 | 0.00 | 0.00 | 0.00 | 40 | 1004.8 |
| 20260505033703 | 12 | 140 | 3.2 | 11.3 | 0.00 | 0.00 | 0.00 | 40 | 1004.8 |
| 20260505033525 | 12 | 147 | 3.2 | 11.3 | 0.00 | 0.00 | 0.00 | 39 | 1004.8 |
| 20260505033427 | 12 | 134 | 3.2 | 11.3 | 0.00 | 0.00 | 0.00 | 38 | 1004.8 |
| 20260505033352 | 12 | 126 | 3.2 | 11.3 | 0.00 | 0.00 | 0.00 | 38 | 1004.8 |
| 20260505033259 | 12 | 126 | 4.8 | 11.3 | 0.00 | 0.00 | 0.00 | 38 | 1004.8 |
| 20260505033220 | 12 | 135 | 4.8 | 11.3 | 0.00 | 0.00 | 0.00 | 38 | 1004.8 |
| 20260505033025 | 11 | 136 | 3.2 | 8.0 | 0.00 | 0.00 | 0.00 | 36 | 1004.9 |
| 20260505032928 | 11 | 155 | 3.2 | 8.0 | 0.00 | 0.00 | 0.00 | 35 | 1004.9 |
| 20260505032832 | 11 | 175 | 3.2 | 8.0 | 0.00 | 0.00 | 0.00 | 34 | 1004.9 |
| 20260505032733 | 11 | 151 | 3.2 | 8.0 | 0.00 | 0.00 | 0.00 | 33 | 1004.8 |
| 20260505032537 | 11 | 140 | 3.2 | 6.4 | 0.00 | 0.00 | 0.00 | 31 | 1004.8 |
| 20260505032438 | 11 | 137 | 1.6 | 4.8 | 0.00 | 0.00 | 0.00 | 30 | 1004.8 |
| 20260505032341 | 11 | 138 | 3.2 | 4.8 | 0.00 | 0.00 | 0.00 | 29 | 1004.8 |
| 20260505032309 | 11 | 138 | 3.2 | 4.8 | 0.00 | 0.00 | 0.00 | 29 | 1004.8 |
| 20260505032230 | 11 | 140 | 1.6 | 4.8 | 0.00 | 0.00 | 0.00 | 28 | 1004.8 |
| 20260505032034 | 11 | 139 | 1.6 | 4.8 | 0.00 | 0.00 | 0.00 | 26 | 1004.8 |
| 20260505031937 | 11 | 136 | 3.2 | 4.8 | 0.00 | 0.00 | 0.00 | 25 | 1004.8 |
| 20260505031839 | 11 | 130 | 1.6 | 6.4 | 0.00 | 0.00 | 0.00 | 24 | 1004.9 |
| 20260505031801 | 11 | 130 | 1.6 | 6.4 | 0.00 | 0.00 | 0.00 | 24 | 1004.9 |
| 20260505031720 | 10 | 130 | 1.6 | 6.4 | 0.00 | 0.00 | 0.00 | 23 | 1004.8 |
| 20260505031623 | 10 | 130 | 1.6 | 6.4 | 0.00 | 0.00 | 0.00 | 22 | 1004.8 |
| 20260505031524 | 10 | 127 | 1.6 | 6.4 | 0.00 | 0.00 | 0.00 | 22 | 1004.8 |
| 20260505031330 | 10 | 127 | 1.6 | 6.4 | 0.00 | 0.00 | 0.00 | 21 | 1004.9 |
| 20260505031236 | 10 | 127 | 3.2 | 6.4 | 0.00 | 0.00 | 0.00 | 20 | 1004.9 |
| 20260505031140 | 10 | 127 | 3.2 | 6.4 | 0.00 | 0.00 | 0.00 | 20 | 1004.8 |
| 20260505031104 | 10 | 132 | 3.2 | 6.4 | 0.00 | 0.00 | 0.00 | 20 | 1004.8 |
| 20260505031025 | 10 | 139 | 3.2 | 6.4 | 0.00 | 0.00 | 0.00 | 20 | 1004.8 |
| 20260505030858 | 10 | 144 | 1.6 | 4.8 | 0.00 | 0.00 | 0.00 | 20 | 1004.8 |
| 20260505030728 | 10 | 145 | 1.6 | 4.8 | 0.00 | 0.00 | 0.00 | 19 | 1004.8 |
| 20260505030653 | 10 | 147 | 1.6 | 4.8 | 0.00 | 0.00 | 0.00 | 19 | 1004.8 |
| 20260505030557 | 10 | 147 | 1.6 | 4.8 | 0.00 | 0.00 | 0.00 | 19 | 1004.8 |
| 20260505030437 | 10 | 146 | 0.0 | 4.8 | 0.00 | 0.00 | 0.00 | 20 | 1004.9 |
| 20260505030340 | 10 | 146 | 1.6 | 4.8 | 0.00 | 0.00 | 0.00 | 19 | 1004.9 |
| 20260505030306 | 10 | 146 | 1.6 | 4.8 | 0.00 | 0.00 | 0.00 | 19 | 1004.9 |
| 20260505030229 | 10 | 146 | 1.6 | 4.8 | 0.00 | 0.00 | 0.00 | 19 | 1005.0 |
| 20260505030031 | 10 | 225 | 0.0 | 0.0 | 0.00 | 0.00 | 0.00 | 20 | 1004.9 |
| 20260505025955 | 10 | 225 | 0.0 | 0.0 | 0.00 | 0.00 | 0.00 | 20 | 1004.9 |
| 20260505025859 | 10 | 225 | 0.0 | 0.0 | 0.00 | 0.00 | 0.00 | 20 | 1004.9 |
| 20260505025820 | 10 | 225 | 0.0 | 0.0 | 0.00 | 0.00 | 0.00 | 20 | 1004.9 |
| 20260505025626 | 10 | 225 | 0.0 | 0.0 | 0.00 | 0.00 | 0.00 | 21 | 1004.9 |
| 20260505025527 | 10 | 225 | 0.0 | 0.0 | 0.00 | 0.00 | 0.00 | 21 | 1004.9 |
| 20260505025429 | 10 | 225 | 0.0 | 0.0 | 0.00 | 0.00 | 0.00 | 20 | 1004.8 |
| 20260505025334 | 10 | 225 | 0.0 | 0.0 | 0.00 | 0.00 | 0.00 | 20 | 1004.9 |
| 20260505025257 | 10 | 225 | 0.0 | 0.0 | 0.00 | 0.00 | 0.00 | 20 | 1004.9 |
| 20260505025159 | 11 | 225 | 0.0 | 0.0 | 0.00 | 0.00 | 0.00 | 20 | 1004.9 |
| 20260505025121 | 11 | 225 | 0.0 | 0.0 | 0.00 | 0.00 | 0.00 | 20 | 1004.9 |
| 20260505024924 | 11 | 225 | 0.0 | 0.0 | 0.00 | 0.00 | 0.00 | 20 | 1004.9 |
| 20260505024826 | 11 | 225 | 0.0 | 0.0 | 0.00 | 0.00 | 0.00 | 21 | 1005.0 |
| 20260505024728 | 11 | 225 | 0.0 | 0.0 | 0.00 | 0.00 | 0.00 | 22 | 1005.0 |
| 20260505024652 | 11 | 225 | 0.0 | 0.0 | 0.00 | 0.00 | 0.00 | 23 | 1005.0 |
| 20260505024613 | 11 | 225 | 0.0 | 0.0 | 0.00 | 0.00 | 0.00 | 23 | 1005.0 |
| 20260505024518 | 11 | 225 | 0.0 | 0.0 | 0.00 | 0.00 | 0.00 | 24 | 1005.0 |
| 20260505024439 | 11 | 225 | 0.0 | 0.0 | 0.00 | 0.00 | 0.00 | 24 | 1005.0 |
| 20260505024313 | 11 | 225 | 0.0 | 0.0 | 0.00 | 0.00 | 0.00 | 25 | 1005.0 |
| 20260505024229 | 11 | 225 | 0.0 | 0.0 | 0.00 | 0.00 | 0.00 | 26 | 1005.0 |
| 20260505024040 | 11 | 225 | 0.0 | 0.0 | 0.00 | 0.00 | 0.00 | 27 | 1005.0 |
| 20260505023954 | 11 | 225 | 0.0 | 0.0 | 0.00 | 0.00 | 0.00 | 28 | 1005.0 |
| 20260505023823 | 11 | 225 | 0.0 | 0.0 | 0.00 | 0.00 | 0.00 | 30 | 1005.0 |
| 20260505023742 | 11 | 225 | 0.0 | 0.0 | 0.00 | 0.00 | 0.00 | 30 | 1005.1 |
| 20260505023614 | 11 | 225 | 0.0 | 0.0 | 0.00 | 0.00 | 0.00 | 31 | 1005.1 |
| 20260505023526 | 11 | 225 | 0.0 | 0.0 | 0.00 | 0.00 | 0.00 | 32 | 1005.1 |
| 20260505023356 | 11 | 225 | 0.0 | 0.0 | 0.00 | 0.00 | 0.00 | 34 | 1005.2 |
| 20260505023258 | 11 | 225 | 0.0 | 0.0 | 0.00 | 0.00 | 0.00 | 35 | 1005.2 |
| 20260505023213 | 11 | 225 | 0.0 | 0.0 | 0.00 | 0.00 | 0.00 | 34 | 1005.2 |
| 20260505023114 | 11 | 225 | 0.0 | 0.0 | 0.00 | 0.00 | 0.00 | 34 | 1005.3 |
| 20260505023039 | 12 | 225 | 0.0 | 0.0 | 0.00 | 0.00 | 0.00 | 35 | 1005.2 |
| 20260505022821 | 12 | 225 | 0.0 | 0.0 | 0.00 | 0.00 | 0.00 | 35 | 1005.2 |
| 20260505022745 | 12 | 225 | 0.0 | 0.0 | 0.00 | 0.00 | 0.00 | 35 | 1005.2 |
| 20260505022647 | 12 | 225 | 0.0 | 0.0 | 0.00 | 0.00 | 0.00 | 35 | 1005.3 |
| 20260505022608 | 12 | 225 | 0.0 | 0.0 | 0.00 | 0.00 | 0.00 | 35 | 1005.3 |
| 20260505022418 | 12 | 225 | 0.0 | 0.0 | 0.00 | 0.00 | 0.00 | 35 | 1005.3 |
| 20260505022333 | 12 | 225 | 0.0 | 0.0 | 0.00 | 0.00 | 0.00 | 35 | 1005.3 |
| 20260505022141 | 12 | 225 | 0.0 | 0.0 | 0.00 | 0.00 | 0.00 | 35 | 1005.3 |
| 20260505022057 | 12 | 225 | 0.0 | 0.0 | 0.00 | 0.00 | 0.00 | 33 | 1005.3 |
| 20260505022020 | 12 | 209 | 0.0 | 0.0 | 0.00 | 0.00 | 0.00 | 32 | 1005.3 |
| 20260505021836 | 12 | 209 | 0.0 | 0.0 | 0.00 | 0.00 | 0.00 | 36 | 1005.3 |
| 20260505021739 | 12 | 209 | 0.0 | 0.0 | 0.00 | 0.00 | 0.00 | 36 | 1005.3 |
| 20260505021659 | 12 | 209 | 0.0 | 0.0 | 0.00 | 0.00 | 0.00 | 36 | 1005.3 |
| 20260505021622 | 12 | 209 | 0.0 | 0.0 | 0.00 | 0.00 | 0.00 | 36 | 1005.3 |
| 20260505021424 | 12 | 209 | 0.0 | 0.0 | 0.00 | 0.00 | 0.00 | 35 | 1005.3 |
| 20260505021348 | 12 | 209 | 0.0 | 0.0 | 0.00 | 0.00 | 0.00 | 35 | 1005.3 |
| 20260505021231 | 12 | 209 | 0.0 | 0.0 | 0.00 | 0.00 | 0.00 | 36 | 1005.3 |
| 20260505021154 | 12 | 209 | 0.0 | 0.0 | 0.00 | 0.00 | 0.00 | 36 | 1005.3 |
| 20260505020936 | 12 | 209 | 0.0 | 0.0 | 0.00 | 0.00 | 0.00 | 36 | 1005.3 |
| 20260505020858 | 12 | 209 | 0.0 | 0.0 | 0.00 | 0.00 | 0.00 | 36 | 1005.3 |
| 20260505020807 | 12 | 209 | 0.0 | 0.0 | 0.00 | 0.00 | 0.00 | 35 | 1005.3 |
| 20260505020729 | 12 | 209 | 0.0 | 0.0 | 0.00 | 0.00 | 0.00 | 35 | 1005.4 |
| 20260505020540 | 12 | 209 | 0.0 | 0.0 | 0.00 | 0.00 | 0.00 | 35 | 1005.4 |
| 20260505020434 | 12 | 209 | 0.0 | 0.0 | 0.00 | 0.00 | 0.00 | 34 | 1005.4 |
| 20260505020358 | 12 | 209 | 0.0 | 0.0 | 0.00 | 0.00 | 0.00 | 33 | 1005.4 |
| 20260505020311 | 12 | 209 | 0.0 | 0.0 | 0.00 | 0.00 | 0.00 | 33 | 1005.3 |
| 20260505020232 | 12 | 209 | 0.0 | 0.0 | 0.00 | 0.00 | 0.00 | 32 | 1005.3 |
| 20260505015936 | 12 | 209 | 0.0 | 3.2 | 0.00 | 0.00 | 0.00 | 28 | 1005.3 |
| 20260505015825 | 12 | 209 | 0.0 | 3.2 | 0.00 | 0.00 | 0.00 | 28 | 1005.2 |
| 20260505015745 | 12 | 209 | 0.0 | 3.2 | 0.00 | 0.00 | 0.00 | 30 | 1005.2 |
| 20260505015617 | 12 | 209 | 0.0 | 4.8 | 0.00 | 0.00 | 0.00 | 29 | 1005.2 |
| 20260505015532 | 12 | 209 | 0.0 | 4.8 | 0.00 | 0.00 | 0.00 | 28 | 1005.2 |
| 20260505015341 | 12 | 209 | 0.0 | 4.8 | 0.00 | 0.00 | 0.00 | 28 | 1005.2 |
| 20260505015257 | 12 | 209 | 0.0 | 4.8 | 0.00 | 0.00 | 0.00 | 30 | 1005.2 |
| 20260505015218 | 12 | 209 | 0.0 | 4.8 | 0.00 | 0.00 | 0.00 | 30 | 1005.2 |
| 20260505015035 | 12 | 218 | 0.0 | 4.8 | 0.00 | 0.00 | 0.00 | 28 | 1005.1 |
| 20260505014936 | 12 | 218 | 1.6 | 4.8 | 0.00 | 0.00 | 0.00 | 29 | 1005.1 |
| 20260505014822 | 12 | 215 | 1.6 | 4.8 | 0.00 | 0.00 | 0.00 | 27 | 1005.1 |
| 20260505014745 | 12 | 165 | 1.6 | 3.2 | 0.00 | 0.00 | 0.00 | 25 | 1005.1 |
| 20260505014707 | 11 | 165 | 0.0 | 3.2 | 0.00 | 0.00 | 0.00 | 24 | 1005.1 |
| 20260505014611 | 11 | 214 | 0.0 | 3.2 | 0.00 | 0.00 | 0.00 | 26 | 1005.1 |
| 20260505014532 | 11 | 214 | 0.0 | 3.2 | 0.00 | 0.00 | 0.00 | 26 | 1005.1 |
| 20260505014336 | 11 | 214 | 0.0 | 3.2 | 0.00 | 0.00 | 0.00 | 27 | 1005.0 |
| 20260505014238 | 11 | 214 | 0.0 | 3.2 | 0.00 | 0.00 | 0.00 | 27 | 1005.1 |
| 20260505014141 | 11 | 214 | 0.0 | 3.2 | 0.00 | 0.00 | 0.00 | 27 | 1005.1 |
| 20260505014045 | 11 | 214 | 0.0 | 3.2 | 0.00 | 0.00 | 0.00 | 28 | 1005.1 |
| 20260505013925 | 11 | 214 | 0.0 | 1.6 | 0.00 | 0.00 | 0.00 | 28 | 1005.2 |
| 20260505013828 | 11 | 214 | 0.0 | 1.6 | 0.00 | 0.00 | 0.00 | 28 | 1005.1 |
| 20260505013749 | 11 | 214 | 0.0 | 1.6 | 0.00 | 0.00 | 0.00 | 28 | 1005.1 |
| 20260505013620 | 11 | 214 | 0.0 | 1.6 | 0.00 | 0.00 | 0.00 | 29 | 1005.1 |
| 20260505013536 | 11 | 214 | 0.0 | 1.6 | 0.00 | 0.00 | 0.00 | 30 | 1005.0 |
| 20260505013406 | 11 | 214 | 0.0 | 1.6 | 0.00 | 0.00 | 0.00 | 29 | 1005.1 |
| 20260505013328 | 11 | 214 | 0.0 | 1.6 | 0.00 | 0.00 | 0.00 | 29 | 1005.1 |
| 20260505013133 | 12 | 214 | 0.0 | 1.6 | 0.00 | 0.00 | 0.00 | 29 | 1005.1 |
| 20260505013035 | 12 | 214 | 0.0 | 3.2 | 0.00 | 0.00 | 0.00 | 29 | 1005.2 |
| 20260505012936 | 12 | 214 | 0.0 | 3.2 | 0.00 | 0.00 | 0.00 | 27 | 1005.1 |
| 20260505012904 | 12 | 214 | 0.0 | 3.2 | 0.00 | 0.00 | 0.00 | 28 | 1005.1 |
| 20260505012824 | 12 | 214 | 0.0 | 3.2 | 0.00 | 0.00 | 0.00 | 28 | 1005.1 |
| 20260505012627 | 12 | 214 | 0.0 | 3.2 | 0.00 | 0.00 | 0.00 | 29 | 1005.1 |
| 20260505012552 | 12 | 214 | 0.0 | 3.2 | 0.00 | 0.00 | 0.00 | 30 | 1005.1 |
| 20260505012456 | 12 | 214 | 0.0 | 3.2 | 0.00 | 0.00 | 0.00 | 31 | 1005.0 |
| 20260505012358 | 12 | 214 | 0.0 | 3.2 | 0.00 | 0.00 | 0.00 | 30 | 1005.0 |
| 20260505012228 | 12 | 214 | 0.0 | 3.2 | 0.00 | 0.00 | 0.00 | 29 | 1005.0 |
| 20260505012123 | 12 | 214 | 0.0 | 0.0 | 0.00 | 0.00 | 0.00 | 28 | 1005.1 |
| 20260505011934 | 12 | 214 | 0.0 | 1.6 | 0.00 | 0.00 | 0.00 | 28 | 1005.0 |
| 20260505011738 | 12 | 214 | 0.0 | 1.6 | 0.00 | 0.00 | 0.00 | 30 | 1005.1 |
| 20260505011704 | 12 | 214 | 0.0 | 1.6 | 0.00 | 0.00 | 0.00 | 31 | 1005.1 |
| 20260505011626 | 12 | 214 | 0.0 | 1.6 | 0.00 | 0.00 | 0.00 | 31 | 1005.1 |
| 20260505011430 | 12 | 214 | 0.0 | 1.6 | 0.00 | 0.00 | 0.00 | 33 | 1005.2 |
| 20260505011353 | 12 | 214 | 0.0 | 1.6 | 0.00 | 0.00 | 0.00 | 33 | 1005.2 |
| 20260505011237 | 12 | 214 | 0.0 | 1.6 | 0.00 | 0.00 | 0.00 | 33 | 1005.0 |
| 20260505011200 | 12 | 214 | 0.0 | 1.6 | 0.00 | 0.00 | 0.00 | 34 | 1005.0 |
| 20260505011105 | 13 | 214 | 0.0 | 1.6 | 0.00 | 0.00 | 0.00 | 34 | 1005.1 |
| 20260505011026 | 13 | 214 | 0.0 | 1.6 | 0.00 | 0.00 | 0.00 | 35 | 1005.1 |
| 20260505010857 | 13 | 214 | 0.0 | 1.6 | 0.00 | 0.00 | 0.00 | 37 | 1005.0 |
| 20260505010752 | 13 | 214 | 0.0 | 1.6 | 0.00 | 0.00 | 0.00 | 39 | 1005.0 |
| 20260505010622 | 13 | 214 | 0.0 | 1.6 | 0.00 | 0.00 | 0.00 | 40 | 1005.0 |
| 20260505010525 | 13 | 214 | 0.0 | 1.6 | 0.00 | 0.00 | 0.00 | 41 | 1004.9 |
| 20260505010329 | 13 | 214 | 0.0 | 1.6 | 0.00 | 0.00 | 0.00 | 44 | 1004.9 |
| 20260505010230 | 13 | 214 | 1.6 | 1.6 | 0.00 | 0.00 | 0.00 | 45 | 1004.9 |
| 20260505010134 | 13 | 214 | 0.0 | 1.6 | 0.00 | 0.00 | 0.00 | 45 | 1004.9 |
| 20260505010058 | 13 | 214 | 0.0 | 1.6 | 0.00 | 0.00 | 0.00 | 46 | 1004.9 |
| 20260505010020 | 13 | 214 | 0.0 | 1.6 | 0.00 | 0.00 | 0.00 | 46 | 1004.9 |
| 20260505005833 | 13 | 214 | 0.0 | 1.6 | 0.00 | 0.00 | 0.00 | 48 | 1004.9 |
| 20260505005756 | 14 | 214 | 0.0 | 1.6 | 0.00 | 0.00 | 0.00 | 48 | 1004.9 |
| 20260505005625 | 14 | 214 | 0.0 | 1.6 | 0.00 | 0.00 | 0.00 | 48 | 1004.9 |
| 20260505005541 | 14 | 214 | 0.0 | 1.6 | 0.00 | 0.00 | 0.00 | 48 | 1004.9 |
| 20260505005411 | 14 | 214 | 0.0 | 1.6 | 0.00 | 0.00 | 0.00 | 49 | 1004.9 |
| 20260505005332 | 14 | 214 | 0.0 | 1.6 | 0.00 | 0.00 | 0.00 | 49 | 1004.9 |
| 20260505005137 | 15 | 214 | 0.0 | 3.2 | 0.00 | 0.00 | 0.00 | 50 | 1004.9 |
| 20260505005040 | 15 | 214 | 0.0 | 3.2 | 0.00 | 0.00 | 0.00 | 50 | 1004.9 |
| 20260505004942 | 15 | 214 | 0.0 | 3.2 | 0.00 | 0.00 | 0.00 | 50 | 1004.8 |
| 20260505004905 | 15 | 214 | 0.0 | 3.2 | 0.00 | 0.00 | 0.00 | 50 | 1004.8 |
| 20260505004826 | 15 | 214 | 0.0 | 3.2 | 0.00 | 0.00 | 0.00 | 51 | 1004.8 |
| 20260505004708 | 15 | 214 | 0.0 | 3.2 | 0.00 | 0.00 | 0.00 | 51 | 1004.8 |
| 20260505004629 | 15 | 214 | 0.0 | 3.2 | 0.00 | 0.00 | 0.00 | 51 | 1004.8 |
| 20260505004439 | 15 | 214 | 1.6 | 3.2 | 0.00 | 0.00 | 0.00 | 51 | 1004.8 |
| 20260505004340 | 15 | 214 | 0.0 | 3.2 | 0.00 | 0.00 | 0.00 | 51 | 1004.7 |
| 20260505004243 | 16 | 214 | 0.0 | 3.2 | 0.00 | 0.00 | 0.00 | 51 | 1004.7 |
| 20260505004205 | 16 | 214 | 0.0 | 3.2 | 0.00 | 0.00 | 0.00 | 52 | 1004.8 |
| 20260505004035 | 16 | 214 | 1.6 | 6.4 | 0.00 | 0.00 | 0.00 | 52 | 1004.7 |
| 20260505003928 | 16 | 214 | 1.6 | 6.4 | 0.00 | 0.00 | 0.00 | 52 | 1004.8 |
| 20260505003757 | 16 | 214 | 1.6 | 6.4 | 0.00 | 0.00 | 0.00 | 49 | 1004.7 |
| 20260505003658 | 16 | 202 | 1.6 | 6.4 | 0.00 | 0.00 | 0.00 | 50 | 1004.7 |
| 20260505003542 | 16 | 200 | 1.6 | 6.4 | 0.00 | 0.00 | 0.00 | 51 | 1004.8 |
| 20260505003515 | 16 | 200 | 1.6 | 6.4 | 0.00 | 0.00 | 0.00 | 51 | 1004.7 |
| 20260505003322 | 16 | 178 | 1.6 | 6.4 | 0.00 | 0.00 | 0.00 | 49 | 1004.7 |
| 20260505003245 | 16 | 178 | 3.2 | 8.0 | 0.00 | 0.00 | 0.00 | 48 | 1004.7 |
| 20260505003129 | 16 | 194 | 3.2 | 8.0 | 0.00 | 0.00 | 0.00 | 50 | 1004.7 |
| 20260505003053 | 16 | 186 | 3.2 | 8.0 | 0.00 | 0.00 | 0.00 | 48 | 1004.7 |
| 20260505003016 | 17 | 137 | 3.2 | 8.0 | 0.00 | 0.00 | 0.00 | 49 | 1004.6 |
| 20260505002920 | 17 | 157 | 1.6 | 8.0 | 0.00 | 0.00 | 0.00 | 48 | 1004.7 |
| 20260505002841 | 17 | 163 | 3.2 | 8.0 | 0.00 | 0.00 | 0.00 | 48 | 1004.7 |
| 20260505002712 | 17 | 155 | 3.2 | 8.0 | 0.00 | 0.00 | 0.00 | 48 | 1004.7 |
| 20260505002626 | 17 | 144 | 4.8 | 8.0 | 0.00 | 0.00 | 0.00 | 47 | 1004.7 |
| 20260505002438 | 17 | 211 | 4.8 | 11.3 | 0.00 | 0.00 | 0.00 | 47 | 1004.6 |
| 20260505002338 | 17 | 185 | 3.2 | 11.3 | 0.00 | 0.00 | 0.00 | 48 | 1004.6 |
| 20260505002231 | 17 | 223 | 3.2 | 11.3 | 0.00 | 0.00 | 0.00 | 46 | 1004.6 |
| 20260505002153 | 17 | 220 | 3.2 | 11.3 | 0.00 | 0.00 | 0.00 | 46 | 1004.6 |
| 20260505002114 | 17 | 215 | 3.2 | 11.3 | 0.00 | 0.00 | 0.00 | 46 | 1004.6 |
| 20260505001947 | 17 | 193 | 3.2 | 11.3 | 0.00 | 0.00 | 0.00 | 46 | 1004.6 |
| 20260505001839 | 17 | 200 | 3.2 | 11.3 | 0.00 | 0.00 | 0.00 | 46 | 1004.6 |
| 20260505001741 | 17 | 204 | 4.8 | 11.3 | 0.00 | 0.00 | 0.00 | 46 | 1004.5 |
| 20260505001642 | 17 | 190 | 4.8 | 11.3 | 0.00 | 0.00 | 0.00 | 47 | 1004.5 |
| 20260505001541 | 17 | 188 | 3.2 | 8.0 | 0.00 | 0.00 | 0.00 | 46 | 1004.5 |
| 20260505001427 | 17 | 150 | 3.2 | 8.0 | 0.00 | 0.00 | 0.00 | 46 | 1004.5 |
| 20260505001351 | 17 | 206 | 4.8 | 8.0 | 0.00 | 0.00 | 0.00 | 46 | 1004.5 |
| 20260505001312 | 17 | 200 | 4.8 | 8.0 | 0.00 | 0.00 | 0.00 | 46 | 1004.5 |
| 20260505001151 | 17 | 200 | 3.2 | 8.0 | 0.00 | 0.00 | 0.00 | 46 | 1004.5 |
| 20260505001054 | 17 | 196 | 3.2 | 6.4 | 0.00 | 0.00 | 0.00 | 46 | 1004.5 |
| 20260505001016 | 17 | 177 | 3.2 | 9.7 | 0.00 | 0.00 | 0.00 | 47 | 1004.5 |
| 20260505000921 | 17 | 170 | 3.2 | 9.7 | 0.00 | 0.00 | 0.00 | 45 | 1004.4 |
| 20260505000729 | 18 | 168 | 3.2 | 9.7 | 0.00 | 0.00 | 0.00 | 45 | 1004.4 |
| 20260505000623 | 18 | 178 | 1.6 | 9.7 | 0.00 | 0.00 | 0.00 | 44 | 1004.4 |
| 20260505000547 | 18 | 146 | 1.6 | 9.7 | 0.00 | 0.00 | 0.00 | 44 | 1004.4 |
| 20260505000444 | 18 | 185 | 3.2 | 9.7 | 0.00 | 0.00 | 0.00 | 44 | 1004.4 |
| 20260505000406 | 18 | 185 | 3.2 | 9.7 | 0.00 | 0.00 | 0.00 | 44 | 1004.4 |
| 20260505000326 | 18 | 153 | 4.8 | 9.7 | 0.00 | 0.00 | 0.00 | 44 | 1004.4 |
| 20260505000211 | 18 | 193 | 6.4 | 9.7 | 0.00 | 0.00 | 0.00 | 44 | 1004.4 |
| 20260505000130 | 18 | 202 | 6.4 | 9.7 | 0.00 | 0.00 | 0.00 | 44 | 1004.4 |
| 20260504235934 | 18 | 190 | 3.2 | 14.5 | 0.00 | 0.00 | 0.00 | 44 | 1004.3 |
| 20260504235835 | 18 | 198 | 4.8 | 16.1 | 0.00 | 0.00 | 0.00 | 43 | 1004.3 |
| 20260504235737 | 18 | 190 | 6.4 | 16.1 | 0.00 | 0.00 | 0.00 | 43 | 1004.3 |
| 20260504235659 | 18 | 172 | 6.4 | 16.1 | 0.00 | 0.00 | 0.00 | 43 | 1004.3 |
| 20260504235621 | 18 | 146 | 6.4 | 16.1 | 0.00 | 0.00 | 0.00 | 43 | 1004.3 |
| 20260504235428 | 18 | 221 | 6.4 | 16.1 | 0.00 | 0.00 | 0.00 | 43 | 1004.3 |
| 20260504235353 | 18 | 187 | 8.0 | 16.1 | 0.00 | 0.00 | 0.00 | 43 | 1004.3 |
| 20260504235259 | 18 | 121 | 9.7 | 16.1 | 0.00 | 0.00 | 0.00 | 43 | 1004.2 |
| 20260504235220 | 18 | 175 | 11.3 | 16.1 | 0.00 | 0.00 | 0.00 | 42 | 1004.3 |
| 20260504235024 | 18 | 199 | 6.4 | 14.5 | 0.00 | 0.00 | 0.00 | 43 | 1004.2 |
| 20260504234925 | 18 | 197 | 4.8 | 12.9 | 0.00 | 0.00 | 0.00 | 43 | 1004.2 |
| 20260504234830 | 18 | 187 | 4.8 | 12.9 | 0.00 | 0.00 | 0.00 | 43 | 1004.3 |
| 20260504234727 | 18 | 167 | 4.8 | 12.9 | 0.00 | 0.00 | 0.00 | 43 | 1004.3 |
| 20260504234537 | 18 | 236 | 3.2 | 14.5 | 0.00 | 0.00 | 0.00 | 43 | 1004.3 |
| 20260504234437 | 18 | 257 | 4.8 | 14.5 | 0.00 | 0.00 | 0.00 | 44 | 1004.3 |
| 20260504234313 | 18 | 174 | 6.4 | 14.5 | 0.00 | 0.00 | 0.00 | 43 | 1004.3 |
| 20260504234246 | 18 | 173 | 8.0 | 14.5 | 0.00 | 0.00 | 0.00 | 42 | 1004.3 |
| 20260504234127 | 18 | 158 | 6.4 | 14.5 | 0.00 | 0.00 | 0.00 | 43 | 1004.2 |
| 20260504234051 | 18 | 186 | 4.8 | 14.5 | 0.00 | 0.00 | 0.00 | 43 | 1004.2 |
| 20260504234014 | 18 | 154 | 4.8 | 14.5 | 0.00 | 0.00 | 0.00 | 42 | 1004.2 |
| 20260504233915 | 18 | 201 | 6.4 | 14.5 | 0.00 | 0.00 | 0.00 | 42 | 1004.2 |
| 20260504233837 | 18 | 195 | 8.0 | 14.5 | 0.00 | 0.00 | 0.00 | 43 | 1004.2 |
| 20260504233706 | 18 | 196 | 8.0 | 12.9 | 0.00 | 0.00 | 0.00 | 42 | 1004.1 |
| 20260504233620 | 18 | 186 | 6.4 | 12.9 | 0.00 | 0.00 | 0.00 | 42 | 1004.1 |
| 20260504233407 | 18 | 236 | 4.8 | 11.3 | 0.00 | 0.00 | 0.00 | 43 | 1004.1 |
| 20260504233238 | 18 | 182 | 4.8 | 11.3 | 0.00 | 0.00 | 0.00 | 42 | 1004.0 |
| 20260504233131 | 18 | 191 | 6.4 | 11.3 | 0.00 | 0.00 | 0.00 | 42 | 1004.0 |
| 20260504232942 | 18 | 184 | 6.4 | 11.3 | 0.00 | 0.00 | 0.00 | 42 | 1004.0 |
| 20260504232838 | 18 | 221 | 6.4 | 11.3 | 0.00 | 0.00 | 0.00 | 42 | 1004.0 |
| 20260504232721 | 18 | 207 | 6.4 | 9.7 | 0.00 | 0.00 | 0.00 | 42 | 1003.9 |
| 20260504232644 | 18 | 184 | 4.8 | 9.7 | 0.00 | 0.00 | 0.00 | 43 | 1003.9 |
| 20260504232608 | 18 | 183 | 3.2 | 16.1 | 0.00 | 0.00 | 0.00 | 42 | 1004.0 |
| 20260504232430 | 19 | 221 | 3.2 | 16.1 | 0.00 | 0.00 | 0.00 | 42 | 1003.8 |
| 20260504232356 | 19 | 221 | 4.8 | 16.1 | 0.00 | 0.00 | 0.00 | 42 | 1003.8 |
| 20260504232208 | 19 | 188 | 4.8 | 16.1 | 0.00 | 0.00 | 0.00 | 42 | 1003.8 |
| 20260504232016 | 19 | 221 | 6.4 | 16.1 | 0.00 | 0.00 | 0.00 | 41 | 1003.8 |
| 20260504231938 | 19 | 223 | 6.4 | 16.1 | 0.00 | 0.00 | 0.00 | 41 | 1003.7 |
| 20260504231809 | 19 | 213 | 8.0 | 16.1 | 0.00 | 0.00 | 0.00 | 41 | 1003.8 |
| 20260504231623 | 19 | 208 | 6.4 | 12.9 | 0.00 | 0.00 | 0.00 | 41 | 1003.7 |
| 20260504231525 | 19 | 229 | 6.4 | 12.9 | 0.00 | 0.00 | 0.00 | 41 | 1003.8 |
| 20260504231446 | 19 | 205 | 4.8 | 12.9 | 0.00 | 0.00 | 0.00 | 41 | 1003.8 |
| 20260504231350 | 19 | 236 | 4.8 | 12.9 | 0.00 | 0.00 | 0.00 | 41 | 1003.8 |
| 20260504231232 | 19 | 212 | 4.8 | 12.9 | 0.00 | 0.00 | 0.00 | 41 | 1003.8 |
| 20260504231148 | 19 | 178 | 4.8 | 12.9 | 0.00 | 0.00 | 0.00 | 41 | 1003.8 |
| 20260504231031 | 19 | 190 | 8.0 | 12.9 | 0.00 | 0.00 | 0.00 | 41 | 1003.7 |
| 20260504230955 | 19 | 169 | 8.0 | 12.9 | 0.00 | 0.00 | 0.00 | 42 | 1003.7 |
| 20260504230911 | 19 | 190 | 6.4 | 12.9 | 0.00 | 0.00 | 0.00 | 41 | 1003.8 |
| 20260504230631 | 19 | 193 | 6.4 | 12.9 | 0.00 | 0.00 | 0.00 | 41 | 1003.7 |
| 20260504230525 | 19 | 186 | 4.8 | 12.9 | 0.00 | 0.00 | 0.00 | 41 | 1003.7 |
| 20260504230448 | 19 | 186 | 3.2 | 12.9 | 0.00 | 0.00 | 0.00 | 41 | 1003.7 |
| 20260504230406 | 19 | 222 | 1.6 | 12.9 | 0.00 | 0.00 | 0.00 | 41 | 1003.7 |
| 20260504230337 | 19 | 240 | 3.2 | 12.9 | 0.00 | 0.00 | 0.00 | 41 | 1003.7 |
| 20260504230131 | 19 | 207 | 4.8 | 12.9 | 0.00 | 0.00 | 0.00 | 41 | 1003.7 |
| 20260504230025 | 19 | 158 | 4.8 | 12.9 | 0.00 | 0.00 | 0.00 | 40 | 1003.7 |
| 20260504225959 | 20 | 195 | 4.8 | 12.9 | 0.00 | 0.00 | 0.00 | 40 | 1003.7 |
| 20260504225824 | 20 | 207 | 6.4 | 12.9 | 0.00 | 0.00 | 0.00 | 40 | 1003.6 |
| 20260504225740 | 20 | 241 | 3.2 | 12.9 | 0.00 | 0.00 | 0.00 | 41 | 1003.6 |
| 20260504225641 | 20 | 191 | 3.2 | 12.9 | 0.00 | 0.00 | 0.00 | 41 | 1003.6 |
| 20260504225546 | 20 | 222 | 4.8 | 12.9 | 0.00 | 0.00 | 0.00 | 41 | 1003.6 |
| 20260504225507 | 20 | 205 | 6.4 | 12.9 | 0.00 | 0.00 | 0.00 | 41 | 1003.5 |
| 20260504225430 | 20 | 177 | 6.4 | 12.9 | 0.00 | 0.00 | 0.00 | 40 | 1003.5 |
| 20260504225316 | 20 | 169 | 6.4 | 14.5 | 0.00 | 0.00 | 0.00 | 40 | 1003.6 |
| 20260504225237 | 20 | 195 | 4.8 | 11.3 | 0.00 | 0.00 | 0.00 | 40 | 1003.6 |
| 20260504225108 | 20 | 202 | 4.8 | 11.3 | 0.00 | 0.00 | 0.00 | 40 | 1003.5 |
| 20260504225004 | 20 | 184 | 4.8 | 12.9 | 0.00 | 0.00 | 0.00 | 40 | 1003.5 |
| 20260504224835 | 20 | 263 | 6.4 | 17.7 | 0.00 | 0.00 | 0.00 | 39 | 1003.4 |
| 20260504224734 | 20 | 263 | 8.0 | 17.7 | 0.00 | 0.00 | 0.00 | 39 | 1003.5 |
| 20260504224536 | 20 | 175 | 8.0 | 17.7 | 0.00 | 0.00 | 0.00 | 39 | 1003.5 |
| 20260504224458 | 20 | 221 | 6.4 | 17.7 | 0.00 | 0.00 | 0.00 | 39 | 1003.5 |
| 20260504224401 | 20 | 244 | 6.4 | 17.7 | 0.00 | 0.00 | 0.00 | 39 | 1003.4 |
| 20260504224244 | 20 | 193 | 9.7 | 17.7 | 0.00 | 0.00 | 0.00 | 39 | 1003.4 |
| 20260504224131 | 20 | 197 | 11.3 | 17.7 | 0.00 | 0.00 | 0.00 | 39 | 1003.3 |
| 20260504224055 | 20 | 190 | 9.7 | 17.7 | 0.00 | 0.00 | 0.00 | 39 | 1003.3 |
| 20260504224016 | 20 | 191 | 6.4 | 17.7 | 0.00 | 0.00 | 0.00 | 39 | 1003.4 |
| 20260504223920 | 20 | 157 | 8.0 | 17.7 | 0.00 | 0.00 | 0.00 | 39 | 1003.3 |
| 20260504223820 | 20 | 229 | 11.3 | 17.7 | 0.00 | 0.00 | 0.00 | 39 | 1003.3 |
| 20260504223653 | 20 | 178 | 11.3 | 19.3 | 0.00 | 0.00 | 0.00 | 39 | 1003.4 |
| 20260504223545 | 20 | 207 | 11.3 | 17.7 | 0.00 | 0.00 | 0.00 | 39 | 1003.4 |
| 20260504223415 | 20 | 170 | 8.0 | 19.3 | 0.00 | 0.00 | 0.00 | 38 | 1003.4 |
| 20260504223338 | 20 | 197 | 8.0 | 17.7 | 0.00 | 0.00 | 0.00 | 38 | 1003.3 |
| 20260504223121 | 20 | 198 | 11.3 | 17.7 | 0.00 | 0.00 | 0.00 | 38 | 1003.3 |
| 20260504223046 | 20 | 206 | 9.7 | 17.7 | 0.00 | 0.00 | 0.00 | 39 | 1003.3 |
| 20260504222932 | 20 | 255 | 8.0 | 20.9 | 0.00 | 0.00 | 0.00 | 39 | 1003.4 |
| 20260504222856 | 20 | 180 | 8.0 | 20.9 | 0.00 | 0.00 | 0.00 | 39 | 1003.3 |
| 20260504222739 | 20 | 230 | 8.0 | 20.9 | 0.00 | 0.00 | 0.00 | 39 | 1003.4 |
| 20260504222700 | 20 | 144 | 8.0 | 20.9 | 0.00 | 0.00 | 0.00 | 40 | 1003.4 |
| 20260504222621 | 20 | 209 | 9.7 | 20.9 | 0.00 | 0.00 | 0.00 | 39 | 1003.4 |
| 20260504222425 | 20 | 257 | 8.0 | 16.1 | 0.00 | 0.00 | 0.00 | 40 | 1003.4 |
| 20260504222349 | 20 | 206 | 6.4 | 16.1 | 0.00 | 0.00 | 0.00 | 39 | 1003.4 |
| 20260504222234 | 20 | 181 | 6.4 | 16.1 | 0.00 | 0.00 | 0.00 | 39 | 1003.4 |
| 20260504222128 | 20 | 188 | 8.0 | 16.1 | 0.00 | 0.00 | 0.00 | 40 | 1003.4 |
| 20260504222055 | 20 | 187 | 8.0 | 16.1 | 0.00 | 0.00 | 0.00 | 39 | 1003.4 |
| 20260504222017 | 20 | 174 | 9.7 | 17.7 | 0.00 | 0.00 | 0.00 | 39 | 1003.4 |
| 20260504221918 | 20 | 194 | 9.7 | 17.7 | 0.00 | 0.00 | 0.00 | 40 | 1003.3 |
| 20260504221800 | 20 | 159 | 9.7 | 17.7 | 0.00 | 0.00 | 0.00 | 39 | 1003.4 |
| 20260504221700 | 20 | 211 | 8.0 | 17.7 | 0.00 | 0.00 | 0.00 | 40 | 1003.4 |
| 20260504221621 | 20 | 197 | 8.0 | 17.7 | 0.00 | 0.00 | 0.00 | 39 | 1003.4 |
| 20260504221426 | 20 | 205 | 6.4 | 17.7 | 0.00 | 0.00 | 0.00 | 39 | 1003.4 |
| 20260504221341 | 20 | 198 | 8.0 | 17.7 | 0.00 | 0.00 | 0.00 | 39 | 1003.4 |
| 20260504221131 | 20 | 193 | 8.0 | 19.3 | 0.00 | 0.00 | 0.00 | 39 | 1003.3 |
| 20260504221029 | 20 | 229 | 8.0 | 17.7 | 0.00 | 0.00 | 0.00 | 40 | 1003.3 |
| 20260504220953 | 20 | 159 | 8.0 | 17.7 | 0.00 | 0.00 | 0.00 | 39 | 1003.3 |
| 20260504220859 | 20 | 191 | 8.0 | 17.7 | 0.00 | 0.00 | 0.00 | 40 | 1003.4 |
| 20260504220740 | 20 | 193 | 11.3 | 20.9 | 0.00 | 0.00 | 0.00 | 39 | 1003.4 |
| 20260504220624 | 20 | 178 | 11.3 | 20.9 | 0.00 | 0.00 | 0.00 | 39 | 1003.4 |
| 20260504220548 | 20 | 213 | 9.7 | 20.9 | 0.00 | 0.00 | 0.00 | 40 | 1003.4 |
| 20260504220425 | 20 | 159 | 6.4 | 20.9 | 0.00 | 0.00 | 0.00 | 41 | 1003.5 |
| 20260504220330 | 20 | 192 | 9.7 | 20.9 | 0.00 | 0.00 | 0.00 | 40 | 1003.4 |
| 20260504220251 | 20 | 198 | 11.3 | 20.9 | 0.00 | 0.00 | 0.00 | 39 | 1003.4 |
| 20260504220125 | 20 | 232 | 12.9 | 20.9 | 0.00 | 0.00 | 0.00 | 39 | 1003.4 |
| 20260504215934 | 20 | 196 | 12.9 | 16.1 | 0.00 | 0.00 | 0.00 | 39 | 1003.5 |
| 20260504215827 | 20 | 165 | 11.3 | 24.1 | 0.00 | 0.00 | 0.00 | 40 | 1003.4 |
| 20260504215708 | 20 | 176 | 11.3 | 24.1 | 0.00 | 0.00 | 0.00 | 39 | 1003.4 |
| 20260504215629 | 20 | 179 | 11.3 | 24.1 | 0.00 | 0.00 | 0.00 | 39 | 1003.4 |
| 20260504215431 | 20 | 153 | 11.3 | 24.1 | 0.00 | 0.00 | 0.00 | 39 | 1003.4 |
| 20260504215355 | 20 | 177 | 12.9 | 24.1 | 0.00 | 0.00 | 0.00 | 39 | 1003.4 |
| 20260504215238 | 20 | 173 | 12.9 | 24.1 | 0.00 | 0.00 | 0.00 | 39 | 1003.4 |
| 20260504215148 | 20 | 136 | 14.5 | 24.1 | 0.00 | 0.00 | 0.00 | 39 | 1003.4 |
| 20260504215026 | 20 | 157 | 12.9 | 24.1 | 0.00 | 0.00 | 0.00 | 39 | 1003.3 |
| 20260504214930 | 20 | 141 | 9.7 | 19.3 | 0.00 | 0.00 | 0.00 | 39 | 1003.4 |
| 20260504214852 | 20 | 188 | 12.9 | 19.3 | 0.00 | 0.00 | 0.00 | 39 | 1003.4 |
| 20260504214814 | 20 | 161 | 12.9 | 19.3 | 0.00 | 0.00 | 0.00 | 39 | 1003.4 |
| 20260504214719 | 20 | 185 | 12.9 | 19.3 | 0.00 | 0.00 | 0.00 | 39 | 1003.4 |
| 20260504214640 | 20 | 221 | 12.9 | 20.9 | 0.00 | 0.00 | 0.00 | 39 | 1003.4 |
| 20260504214512 | 20 | 245 | 14.5 | 24.1 | 0.00 | 0.00 | 0.00 | 39 | 1003.4 |
| 20260504214427 | 20 | 200 | 12.9 | 25.7 | 0.00 | 0.00 | 0.00 | 39 | 1003.4 |
| 20260504214225 | 20 | 134 | 12.9 | 24.1 | 0.00 | 0.00 | 0.00 | 39 | 1003.4 |
| 20260504214037 | 20 | 185 | 8.0 | 24.1 | 0.00 | 0.00 | 0.00 | 40 | 1003.4 |
| 20260504213931 | 20 | 209 | 9.7 | 24.1 | 0.00 | 0.00 | 0.00 | 39 | 1003.4 |
| 20260504213859 | 20 | 238 | 11.3 | 24.1 | 0.00 | 0.00 | 0.00 | 39 | 1003.4 |
| 20260504213724 | 20 | 208 | 12.9 | 24.1 | 0.00 | 0.00 | 0.00 | 39 | 1003.3 |
| 20260504213640 | 20 | 166 | 11.3 | 25.7 | 0.00 | 0.00 | 0.00 | 38 | 1003.3 |
| 20260504213509 | 20 | 152 | 11.3 | 29.0 | 0.00 | 0.00 | 0.00 | 38 | 1003.6 |
| 20260504213432 | 20 | 195 | 12.9 | 29.0 | 0.00 | 0.00 | 0.00 | 38 | 1003.4 |
| 20260504213234 | 20 | 172 | 14.5 | 29.0 | 0.00 | 0.00 | 0.00 | 38 | 1003.2 |
| 20260504213156 | 20 | 203 | 14.5 | 29.0 | 0.00 | 0.00 | 0.00 | 38 | 1003.2 |
| 20260504213100 | 20 | 163 | 16.1 | 29.0 | 0.00 | 0.00 | 0.00 | 37 | 1003.3 |
| 20260504212942 | 20 | 188 | 14.5 | 29.0 | 0.00 | 0.00 | 0.00 | 38 | 1003.3 |
| 20260504212830 | 20 | 160 | 14.5 | 29.0 | 0.00 | 0.00 | 0.00 | 37 | 1003.3 |
| 20260504212752 | 20 | 153 | 12.9 | 29.0 | 0.00 | 0.00 | 0.00 | 37 | 1003.3 |
| 20260504212708 | 21 | 114 | 11.3 | 24.1 | 0.00 | 0.00 | 0.00 | 38 | 1003.3 |
| 20260504212516 | 21 | 195 | 14.5 | 24.1 | 0.00 | 0.00 | 0.00 | 38 | 1003.3 |
| 20260504212438 | 21 | 168 | 12.9 | 24.1 | 0.00 | 0.00 | 0.00 | 38 | 1003.2 |
| 20260504212301 | 21 | 172 | 14.5 | 24.1 | 0.00 | 0.00 | 0.00 | 39 | 1003.2 |
| 20260504212222 | 21 | 169 | 14.5 | 24.1 | 0.00 | 0.00 | 0.00 | 39 | 1003.4 |
| 20260504212034 | 21 | 142 | 11.3 | 35.4 | 0.00 | 0.00 | 0.00 | 39 | 1003.3 |
| 20260504211927 | 21 | 222 | 8.0 | 35.4 | 0.00 | 0.00 | 0.00 | 40 | 1003.3 |
| 20260504211851 | 20 | 172 | 8.0 | 35.4 | 0.00 | 0.00 | 0.00 | 40 | 1003.3 |
| 20260504211738 | 20 | 187 | 8.0 | 35.4 | 0.00 | 0.00 | 0.00 | 39 | 1003.2 |
| 20260504211700 | 20 | 169 | 8.0 | 35.4 | 0.00 | 0.00 | 0.00 | 40 | 1003.2 |
| 20260504211615 | 20 | 199 | 8.0 | 35.4 | 0.00 | 0.00 | 0.00 | 39 | 1003.2 |
| 20260504211427 | 20 | 224 | 14.5 | 35.4 | 0.00 | 0.00 | 0.00 | 40 | 1003.2 |
| 20260504211344 | 20 | 211 | 20.9 | 35.4 | 0.00 | 0.00 | 0.00 | 39 | 1003.2 |
| 20260504211213 | 20 | 136 | 14.5 | 35.4 | 0.00 | 0.00 | 0.00 | 39 | 1003.3 |
| 20260504211135 | 20 | 183 | 11.3 | 22.5 | 0.00 | 0.00 | 0.00 | 39 | 1003.2 |
| 20260504210938 | 20 | 157 | 11.3 | 25.7 | 0.00 | 0.00 | 0.00 | 39 | 1003.0 |
| 20260504210841 | 20 | 167 | 12.9 | 25.7 | 0.00 | 0.00 | 0.00 | 39 | 1003.2 |
| 20260504210725 | 20 | 161 | 11.3 | 25.7 | 0.00 | 0.00 | 0.00 | 39 | 1003.2 |
| 20260504210650 | 20 | 213 | 8.0 | 25.7 | 0.00 | 0.00 | 0.00 | 39 | 1003.2 |
| 20260504210610 | 20 | 200 | 9.7 | 25.7 | 0.00 | 0.00 | 0.00 | 40 | 1003.2 |
| 20260504210515 | 20 | 186 | 8.0 | 25.7 | 0.00 | 0.00 | 0.00 | 39 | 1003.2 |
| 20260504210437 | 20 | 214 | 11.3 | 25.7 | 0.00 | 0.00 | 0.00 | 39 | 1003.2 |
| 20260504210231 | 20 | 174 | 11.3 | 24.1 | 0.00 | 0.00 | 0.00 | 39 | 1003.3 |
| 20260504210132 | 20 | 188 | 9.7 | 24.1 | 0.00 | 0.00 | 0.00 | 39 | 1003.2 |
| 20260504210036 | 20 | 238 | 9.7 | 24.1 | 0.00 | 0.00 | 0.00 | 40 | 1003.2 |
| 20260504205939 | 20 | 198 | 12.9 | 24.1 | 0.00 | 0.00 | 0.00 | 40 | 1003.3 |
| 20260504205629 | 20 | 263 | 12.9 | 24.1 | 0.00 | 0.00 | 0.00 | 39 | 1003.4 |
| 20260504205535 | 20 | 193 | 12.9 | 20.9 | 0.00 | 0.00 | 0.00 | 40 | 1003.3 |
| 20260504205448 | 20 | 232 | 9.7 | 20.9 | 0.00 | 0.00 | 0.00 | 40 | 1003.2 |
| 20260504205349 | 20 | 142 | 9.7 | 20.9 | 0.00 | 0.00 | 0.00 | 41 | 1003.2 |
| 20260504205310 | 20 | 205 | 12.9 | 20.9 | 0.00 | 0.00 | 0.00 | 41 | 1003.2 |
| 20260504205112 | 20 | 255 | 9.7 | 22.5 | 0.00 | 0.00 | 0.00 | 40 | 1003.3 |
| 20260504205035 | 20 | 174 | 9.7 | 20.9 | 0.00 | 0.00 | 0.00 | 43 | 1003.2 |
| 20260504204905 | 20 | 192 | 11.3 | 24.1 | 0.00 | 0.00 | 0.00 | 40 | 1003.2 |
| 20260504204827 | 20 | 172 | 11.3 | 24.1 | 0.00 | 0.00 | 0.00 | 40 | 1003.2 |
| 20260504204629 | 20 | 171 | 11.3 | 24.1 | 0.00 | 0.00 | 0.00 | 41 | 1003.2 |
| 20260504204550 | 20 | 187 | 9.7 | 24.1 | 0.00 | 0.00 | 0.00 | 41 | 1003.2 |
| 20260504204438 | 20 | 184 | 9.7 | 24.1 | 0.00 | 0.00 | 0.00 | 41 | 1003.2 |
| 20260504204402 | 20 | 177 | 12.9 | 24.1 | 0.00 | 0.00 | 0.00 | 41 | 1003.2 |
| 20260504204223 | 20 | 169 | 16.1 | 24.1 | 0.00 | 0.00 | 0.00 | 41 | 1003.2 |
| 20260504204147 | 20 | 140 | 17.7 | 24.1 | 0.00 | 0.00 | 0.00 | 40 | 1003.2 |
| 20260504204023 | 20 | 126 | 12.9 | 24.1 | 0.00 | 0.00 | 0.00 | 41 | 1003.2 |
| 20260504203927 | 20 | 173 | 11.3 | 24.1 | 0.00 | 0.00 | 0.00 | 43 | 1003.1 |
| 20260504203851 | 20 | 163 | 11.3 | 24.1 | 0.00 | 0.00 | 0.00 | 42 | 1003.1 |
| 20260504203812 | 20 | 153 | 14.5 | 24.1 | 0.00 | 0.00 | 0.00 | 42 | 1003.1 |
| 20260504203716 | 20 | 151 | 16.1 | 24.1 | 0.00 | 0.00 | 0.00 | 41 | 1003.1 |
| 20260504203638 | 20 | 153 | 14.5 | 20.9 | 0.00 | 0.00 | 0.00 | 41 | 1003.2 |
| 20260504203513 | 20 | 164 | 8.0 | 19.3 | 0.00 | 0.00 | 0.00 | 43 | 1003.1 |
| 20260504203415 | 20 | 155 | 6.4 | 19.3 | 0.00 | 0.00 | 0.00 | 44 | 1003.2 |
| 20260504203238 | 20 | 177 | 9.7 | 19.3 | 0.00 | 0.00 | 0.00 | 43 | 1003.3 |
| 20260504203201 | 20 | 183 | 12.9 | 19.3 | 0.00 | 0.00 | 0.00 | 45 | 1003.3 |
| 20260504202944 | 20 | 171 | 12.9 | 19.3 | 0.00 | 0.00 | 0.00 | 44 | 1003.3 |
| 20260504202907 | 20 | 178 | 12.9 | 19.3 | 0.00 | 0.00 | 0.00 | 43 | 1003.3 |
| 20260504202812 | 19 | 138 | 12.9 | 19.3 | 0.00 | 0.00 | 0.00 | 44 | 1003.3 |
| 20260504202735 | 19 | 136 | 12.9 | 19.3 | 0.00 | 0.00 | 0.00 | 44 | 1003.3 |
| 20260504202604 | 19 | 163 | 12.9 | 19.3 | 0.00 | 0.00 | 0.00 | 45 | 1003.4 |
| 20260504202516 | 19 | 192 | 11.3 | 19.3 | 0.00 | 0.00 | 0.00 | 45 | 1003.4 |
| 20260504202346 | 19 | 190 | 9.7 | 19.3 | 0.00 | 0.00 | 0.00 | 45 | 1003.4 |
| 20260504202252 | 19 | 148 | 8.0 | 24.1 | 0.00 | 0.00 | 0.00 | 45 | 1003.4 |
| 20260504202153 | 19 | 164 | 9.7 | 24.1 | 0.00 | 0.00 | 0.00 | 44 | 1003.4 |
| 20260504202035 | 19 | 155 | 11.3 | 24.1 | 0.00 | 0.00 | 0.00 | 43 | 1003.5 |
| 20260504201959 | 19 | 175 | 12.9 | 24.1 | 0.00 | 0.00 | 0.00 | 43 | 1003.5 |
| 20260504201915 | 19 | 191 | 12.9 | 24.1 | 0.00 | 0.00 | 0.00 | 43 | 1003.5 |
| 20260504201725 | 19 | 173 | 8.0 | 24.1 | 0.00 | 0.00 | 0.00 | 44 | 1003.5 |
| 20260504201638 | 19 | 142 | 8.0 | 24.1 | 0.00 | 0.00 | 0.00 | 43 | 1003.6 |
| 20260504201510 | 19 | 144 | 14.5 | 24.1 | 0.00 | 0.00 | 0.00 | 43 | 1003.5 |
| 20260504201432 | 19 | 173 | 14.5 | 22.5 | 0.00 | 0.00 | 0.00 | 44 | 1003.6 |
| 20260504201233 | 19 | 183 | 9.7 | 22.5 | 0.00 | 0.00 | 0.00 | 44 | 1003.6 |
| 20260504201159 | 19 | 165 | 8.0 | 22.5 | 0.00 | 0.00 | 0.00 | 44 | 1003.6 |
| 20260504201041 | 19 | 206 | 11.3 | 22.5 | 0.00 | 0.00 | 0.00 | 43 | 1003.7 |
| 20260504201004 | 19 | 155 | 12.9 | 22.5 | 0.00 | 0.00 | 0.00 | 43 | 1003.7 |
| 20260504200918 | 19 | 243 | 12.9 | 22.5 | 0.00 | 0.00 | 0.00 | 43 | 1003.8 |
| 20260504200729 | 19 | 192 | 11.3 | 25.7 | 0.00 | 0.00 | 0.00 | 43 | 1003.7 |
| 20260504200623 | 19 | 229 | 9.7 | 25.7 | 0.00 | 0.00 | 0.00 | 44 | 1003.8 |
| 20260504200545 | 19 | 227 | 9.7 | 25.7 | 0.00 | 0.00 | 0.00 | 44 | 1003.8 |
| 20260504200500 | 19 | 234 | 11.3 | 25.7 | 0.00 | 0.00 | 0.00 | 43 | 1003.7 |
| 20260504200422 | 19 | 148 | 11.3 | 25.7 | 0.00 | 0.00 | 0.00 | 43 | 1003.7 |
| 20260504200237 | 19 | 157 | 9.7 | 25.7 | 0.00 | 0.00 | 0.00 | 44 | 1003.7 |
| 20260504200131 | 19 | 160 | 11.3 | 24.1 | 0.00 | 0.00 | 0.00 | 43 | 1003.7 |
| 20260504200053 | 20 | 171 | 12.9 | 24.1 | 0.00 | 0.00 | 0.00 | 43 | 1003.7 |
| 20260504195959 | 20 | 140 | 14.5 | 24.1 | 0.00 | 0.00 | 0.00 | 42 | 1003.8 |
| 20260504195838 | 20 | 182 | 11.3 | 24.1 | 0.00 | 0.00 | 0.00 | 43 | 1003.9 |
| 20260504195754 | 20 | 216 | 9.7 | 24.1 | 0.00 | 0.00 | 0.00 | 43 | 1003.9 |
| 20260504195723 | 20 | 155 | 11.3 | 24.1 | 0.00 | 0.00 | 0.00 | 43 | 1003.9 |
| 20260504195625 | 20 | 174 | 12.9 | 24.1 | 0.00 | 0.00 | 0.00 | 43 | 1003.8 |
| 20260504195428 | 20 | 131 | 17.7 | 24.1 | 0.00 | 0.00 | 0.00 | 42 | 1003.9 |
| 20260504195352 | 20 | 190 | 17.7 | 25.7 | 0.00 | 0.00 | 0.00 | 42 | 1003.9 |
| 20260504195239 | 20 | 139 | 16.1 | 25.7 | 0.00 | 0.00 | 0.00 | 44 | 1003.9 |
| 20260504195201 | 20 | 173 | 16.1 | 25.7 | 0.00 | 0.00 | 0.00 | 44 | 1003.9 |
| 20260504195115 | 20 | 205 | 16.1 | 25.7 | 0.00 | 0.00 | 0.00 | 43 | 1003.9 |
| 20260504194947 | 20 | 198 | 12.9 | 24.1 | 0.00 | 0.00 | 0.00 | 44 | 1003.9 |
| 20260504194728 | 19 | 165 | 9.7 | 38.6 | 0.00 | 0.00 | 0.00 | 44 | 1003.7 |
| 20260504194630 | 19 | 95 | 11.3 | 38.6 | 0.00 | 0.00 | 0.00 | 44 | 1003.7 |
| 20260504194533 | 19 | 215 | 17.7 | 38.6 | 0.00 | 0.00 | 0.00 | 43 | 1003.9 |
| 20260504194455 | 19 | 163 | 17.7 | 38.6 | 0.00 | 0.00 | 0.00 | 42 | 1003.9 |
| 20260504194418 | 19 | 120 | 16.1 | 38.6 | 0.00 | 0.00 | 0.00 | 42 | 1003.8 |
| 20260504194224 | 19 | 142 | 14.5 | 38.6 | 0.00 | 0.00 | 0.00 | 43 | 1003.9 |
| 20260504194127 | 19 | 146 | 19.3 | 38.6 | 0.00 | 0.00 | 0.00 | 44 | 1004.0 |
| 20260504194032 | 19 | 219 | 20.9 | 38.6 | 0.00 | 0.00 | 0.00 | 43 | 1003.9 |
| 20260504193954 | 19 | 145 | 17.7 | 35.4 | 0.00 | 0.00 | 0.00 | 44 | 1003.9 |
| 20260504193734 | 19 | 169 | 19.3 | 35.4 | 0.00 | 0.00 | 0.00 | 44 | 1004.0 |
| 20260504193637 | 19 | 159 | 14.5 | 35.4 | 0.00 | 0.00 | 0.00 | 44 | 1003.9 |
| 20260504193541 | 19 | 150 | 20.9 | 35.4 | 0.00 | 0.00 | 0.00 | 43 | 1003.9 |
| 20260504193441 | 19 | 167 | 20.9 | 37.0 | 0.00 | 0.00 | 0.00 | 42 | 1004.0 |
| 20260504193312 | 19 | 190 | 14.5 | 33.8 | 0.00 | 0.00 | 0.00 | 45 | 1004.0 |
| 20260504193228 | 19 | 171 | 12.9 | 33.8 | 0.00 | 0.00 | 0.00 | 44 | 1004.0 |
| 20260504193041 | 19 | 152 | 12.9 | 33.8 | 0.00 | 0.00 | 0.00 | 44 | 1004.0 |
| 20260504193004 | 19 | 150 | 11.3 | 33.8 | 0.00 | 0.00 | 0.00 | 44 | 1004.0 |
| 20260504192918 | 19 | 188 | 14.5 | 33.8 | 0.00 | 0.00 | 0.00 | 44 | 1004.1 |
| 20260504192729 | 19 | 133 | 16.1 | 33.8 | 0.00 | 0.00 | 0.00 | 44 | 1004.1 |
| 20260504192644 | 18 | 183 | 12.9 | 33.8 | 0.00 | 0.00 | 0.00 | 44 | 1004.1 |
| 20260504192515 | 18 | 174 | 14.5 | 25.7 | 0.00 | 0.00 | 0.00 | 44 | 1004.1 |
| 20260504192415 | 18 | 123 | 16.1 | 25.7 | 0.00 | 0.00 | 0.00 | 44 | 1004.1 |
| 20260504192239 | 18 | 184 | 14.5 | 25.7 | 0.00 | 0.00 | 0.00 | 44 | 1004.1 |
| 20260504192142 | 18 | 200 | 14.5 | 25.7 | 0.00 | 0.00 | 0.00 | 44 | 1004.1 |
| 20260504192028 | 19 | 156 | 16.1 | 25.7 | 0.00 | 0.00 | 0.00 | 43 | 1004.2 |
| 20260504191950 | 19 | 161 | 17.7 | 25.7 | 0.00 | 0.00 | 0.00 | 44 | 1004.2 |
| 20260504191904 | 19 | 108 | 17.7 | 25.7 | 0.00 | 0.00 | 0.00 | 43 | 1004.2 |
| 20260504191744 | 19 | 235 | 14.5 | 25.7 | 0.00 | 0.00 | 0.00 | 43 | 1004.2 |
| 20260504191647 | 19 | 146 | 12.9 | 25.7 | 0.00 | 0.00 | 0.00 | 44 | 1004.2 |
| 20260504191523 | 19 | 246 | 17.7 | 25.7 | 0.00 | 0.00 | 0.00 | 45 | 1004.1 |
| 20260504191427 | 19 | 192 | 19.3 | 27.4 | 0.00 | 0.00 | 0.00 | 43 | 1004.2 |
| 20260504191328 | 19 | 175 | 12.9 | 22.5 | 0.00 | 0.00 | 0.00 | 45 | 1004.2 |
| 20260504191253 | 19 | 163 | 9.7 | 22.5 | 0.00 | 0.00 | 0.00 | 45 | 1004.2 |
| 20260504191121 | 19 | 271 | 12.9 | 22.5 | 0.00 | 0.00 | 0.00 | 45 | 1004.1 |
| 20260504191024 | 19 | 219 | 12.9 | 22.5 | 0.00 | 0.00 | 0.00 | 45 | 1004.2 |
| 20260504190948 | 19 | 175 | 14.5 | 22.5 | 0.00 | 0.00 | 0.00 | 45 | 1004.2 |
| 20260504190831 | 18 | 202 | 11.3 | 22.5 | 0.00 | 0.00 | 0.00 | 44 | 1004.1 |
| 20260504190744 | 18 | 171 | 11.3 | 22.5 | 0.00 | 0.00 | 0.00 | 44 | 1004.1 |
| 20260504190640 | 18 | 126 | 16.1 | 22.5 | 0.00 | 0.00 | 0.00 | 45 | 1004.1 |
| 20260504190522 | 18 | 184 | 16.1 | 25.7 | 0.00 | 0.00 | 0.00 | 43 | 1004.2 |
| 20260504190445 | 19 | 172 | 16.1 | 27.4 | 0.00 | 0.00 | 0.00 | 44 | 1004.2 |
| 20260504190411 | 19 | 124 | 14.5 | 25.7 | 0.00 | 0.00 | 0.00 | 43 | 1004.2 |
| 20260504190232 | 19 | 194 | 12.9 | 19.3 | 0.00 | 0.00 | 0.00 | 45 | 1004.3 |
| 20260504190154 | 19 | 155 | 11.3 | 19.3 | 0.00 | 0.00 | 0.00 | 45 | 1004.3 |
| 20260504190018 | 18 | 212 | 11.3 | 25.7 | 0.00 | 0.00 | 0.00 | 46 | 1004.3 |
| 20260504185940 | 18 | 176 | 12.9 | 25.7 | 0.00 | 0.00 | 0.00 | 45 | 1004.3 |
| 20260504185809 | 18 | 218 | 14.5 | 25.7 | 0.00 | 0.00 | 0.00 | 45 | 1004.3 |
| 20260504185720 | 18 | 178 | 16.1 | 25.7 | 0.00 | 0.00 | 0.00 | 44 | 1004.3 |
| 20260504185524 | 18 | 146 | 12.9 | 25.7 | 0.00 | 0.00 | 0.00 | 45 | 1004.5 |
| 20260504185438 | 18 | 182 | 14.5 | 25.7 | 0.00 | 0.00 | 0.00 | 45 | 1004.5 |
| 20260504185346 | 18 | 156 | 14.5 | 25.7 | 0.00 | 0.00 | 0.00 | 46 | 1004.5 |
| 20260504185250 | 18 | 146 | 11.3 | 25.7 | 0.00 | 0.00 | 0.00 | 44 | 1004.5 |
| 20260504185149 | 18 | 102 | 8.0 | 27.4 | 0.00 | 0.00 | 0.00 | 44 | 1004.5 |
| 20260504185010 | 18 | 207 | 14.5 | 27.4 | 0.00 | 0.00 | 0.00 | 44 | 1004.6 |
| 20260504184926 | 18 | 163 | 16.1 | 27.4 | 0.00 | 0.00 | 0.00 | 44 | 1004.6 |
| 20260504184704 | 18 | 159 | 9.7 | 24.1 | 0.00 | 0.00 | 0.00 | 45 | 1004.6 |
| 20260504184625 | 18 | 230 | 8.0 | 24.1 | 0.00 | 0.00 | 0.00 | 45 | 1004.6 |
| 20260504184435 | 18 | 184 | 12.9 | 24.1 | 0.00 | 0.00 | 0.00 | 44 | 1004.7 |
| 20260504184329 | 18 | 219 | 14.5 | 24.1 | 0.00 | 0.00 | 0.00 | 45 | 1004.7 |
| 20260504184138 | 18 | 131 | 14.5 | 24.1 | 0.00 | 0.00 | 0.00 | 47 | 1004.8 |
| 20260504184031 | 18 | 190 | 11.3 | 24.1 | 0.00 | 0.00 | 0.00 | 45 | 1004.8 |
| 20260504183959 | 18 | 213 | 12.9 | 37.0 | 0.00 | 0.00 | 0.00 | 47 | 1004.8 |
| 20260504183824 | 18 | 157 | 12.9 | 37.0 | 0.00 | 0.00 | 0.00 | 46 | 1004.8 |
| 20260504183738 | 18 | 180 | 11.3 | 37.0 | 0.00 | 0.00 | 0.00 | 46 | 1004.9 |
| 20260504183610 | 17 | 209 | 8.0 | 37.0 | 0.00 | 0.00 | 0.00 | 46 | 1004.8 |
| 20260504183532 | 17 | 192 | 11.3 | 37.0 | 0.00 | 0.00 | 0.00 | 45 | 1004.8 |
| 20260504183335 | 17 | 198 | 12.9 | 37.0 | 0.00 | 0.00 | 0.00 | 45 | 1004.9 |
| 20260504183258 | 17 | 160 | 16.1 | 37.0 | 0.00 | 0.00 | 0.00 | 46 | 1004.9 |
| 20260504183136 | 17 | 163 | 22.5 | 37.0 | 0.00 | 0.00 | 0.00 | 44 | 1004.9 |
| 20260504183058 | 17 | 175 | 19.3 | 37.0 | 0.00 | 0.00 | 0.00 | 44 | 1004.9 |
| 20260504183015 | 17 | 139 | 14.5 | 30.6 | 0.00 | 0.00 | 0.00 | 46 | 1005.0 |
| 20260504182845 | 17 | 144 | 12.9 | 30.6 | 0.00 | 0.00 | 0.00 | 46 | 1005.0 |
| 20260504182748 | 17 | 220 | 14.5 | 30.6 | 0.00 | 0.00 | 0.00 | 47 | 1005.0 |
| 20260504182710 | 17 | 181 | 14.5 | 30.6 | 0.00 | 0.00 | 0.00 | 46 | 1005.0 |
| 20260504182613 | 17 | 205 | 16.1 | 30.6 | 0.00 | 0.00 | 0.00 | 45 | 1004.9 |
| 20260504182537 | 17 | 171 | 14.5 | 30.6 | 0.00 | 0.00 | 0.00 | 45 | 1005.0 |
| 20260504182409 | 17 | 164 | 16.1 | 30.6 | 0.00 | 0.00 | 0.00 | 46 | 1005.0 |
| 20260504182322 | 17 | 152 | 12.9 | 30.6 | 0.00 | 0.00 | 0.00 | 46 | 1005.1 |
| 20260504182152 | 17 | 137 | 9.7 | 22.5 | 0.00 | 0.00 | 0.00 | 47 | 1005.1 |
| 20260504182054 | 17 | 126 | 11.3 | 22.5 | 0.00 | 0.00 | 0.00 | 46 | 1005.1 |
| 20260504181939 | 17 | 144 | 14.5 | 22.5 | 0.00 | 0.00 | 0.00 | 45 | 1005.3 |
| 20260504181846 | 17 | 128 | 11.3 | 22.5 | 0.00 | 0.00 | 0.00 | 46 | 1005.2 |
| 20260504181725 | 17 | 170 | 11.3 | 19.3 | 0.00 | 0.00 | 0.00 | 46 | 1005.2 |
| 20260504181647 | 17 | 235 | 12.9 | 19.3 | 0.00 | 0.00 | 0.00 | 46 | 1005.2 |
| 20260504181610 | 17 | 217 | 12.9 | 19.3 | 0.00 | 0.00 | 0.00 | 46 | 1005.2 |
| 20260504181513 | 17 | 192 | 14.5 | 22.5 | 0.00 | 0.00 | 0.00 | 46 | 1005.1 |
| 20260504181436 | 17 | 217 | 14.5 | 22.5 | 0.00 | 0.00 | 0.00 | 46 | 1005.1 |
| 20260504181305 | 17 | 161 | 11.3 | 22.5 | 0.00 | 0.00 | 0.00 | 46 | 1005.1 |
| 20260504181218 | 17 | 157 | 11.3 | 22.5 | 0.00 | 0.00 | 0.00 | 47 | 1005.1 |
| 20260504181030 | 17 | 163 | 12.9 | 22.5 | 0.00 | 0.00 | 0.00 | 46 | 1005.2 |
| 20260504180943 | 17 | 178 | 14.5 | 22.5 | 0.00 | 0.00 | 0.00 | 46 | 1005.2 |
| 20260504180815 | 17 | 204 | 12.9 | 22.5 | 0.00 | 0.00 | 0.00 | 47 | 1005.3 |
| 20260504180736 | 17 | 173 | 12.9 | 22.5 | 0.00 | 0.00 | 0.00 | 48 | 1005.3 |
| 20260504180521 | 17 | 165 | 11.3 | 20.9 | 0.00 | 0.00 | 0.00 | 47 | 1005.3 |
| 20260504180445 | 17 | 169 | 9.7 | 20.9 | 0.00 | 0.00 | 0.00 | 47 | 1005.3 |
| 20260504180327 | 16 | 200 | 11.3 | 20.9 | 0.00 | 0.00 | 0.00 | 47 | 1005.4 |
| 20260504180249 | 16 | 246 | 11.3 | 20.9 | 0.00 | 0.00 | 0.00 | 47 | 1005.4 |
| 20260504180211 | 16 | 227 | 9.7 | 20.9 | 0.00 | 0.00 | 0.00 | 48 | 1005.5 |
| 20260504180113 | 16 | 205 | 6.4 | 20.9 | 0.00 | 0.00 | 0.00 | 47 | 1005.4 |
| 20260504180036 | 16 | 208 | 6.4 | 20.9 | 0.00 | 0.00 | 0.00 | 48 | 1005.4 |
| 20260504175906 | 16 | 161 | 9.7 | 20.9 | 0.00 | 0.00 | 0.00 | 47 | 1005.5 |
| 20260504175740 | 16 | 174 | 9.7 | 22.5 | 0.00 | 0.00 | 0.00 | 47 | 1005.5 |
| 20260504175628 | 16 | 242 | 8.0 | 16.1 | 0.00 | 0.00 | 0.00 | 48 | 1005.5 |
| 20260504175550 | 16 | 204 | 8.0 | 16.1 | 0.00 | 0.00 | 0.00 | 48 | 1005.5 |
| 20260504175419 | 16 | 184 | 9.7 | 16.1 | 0.00 | 0.00 | 0.00 | 47 | 1005.6 |
| 20260504175336 | 16 | 205 | 8.0 | 17.7 | 0.00 | 0.00 | 0.00 | 47 | 1005.5 |
| 20260504175206 | 16 | 157 | 9.7 | 22.5 | 0.00 | 0.00 | 0.00 | 48 | 1005.5 |
| 20260504175127 | 16 | 265 | 9.7 | 22.5 | 0.00 | 0.00 | 0.00 | 48 | 1005.5 |
| 20260504174929 | 16 | 167 | 8.0 | 22.5 | 0.00 | 0.00 | 0.00 | 48 | 1005.6 |
| 20260504174853 | 16 | 166 | 8.0 | 22.5 | 0.00 | 0.00 | 0.00 | 47 | 1005.6 |
| 20260504174735 | 16 | 156 | 6.4 | 22.5 | 0.00 | 0.00 | 0.00 | 48 | 1005.6 |
| 20260504174658 | 16 | 155 | 8.0 | 22.5 | 0.00 | 0.00 | 0.00 | 48 | 1005.6 |
| 20260504174620 | 16 | 185 | 12.9 | 22.5 | 0.00 | 0.00 | 0.00 | 48 | 1005.6 |
| 20260504174506 | 16 | 215 | 14.5 | 22.5 | 0.00 | 0.00 | 0.00 | 48 | 1005.6 |
| 20260504174430 | 16 | 137 | 14.5 | 20.9 | 0.00 | 0.00 | 0.00 | 48 | 1005.7 |
| 20260504174223 | 16 | 158 | 8.0 | 22.5 | 0.00 | 0.00 | 0.00 | 48 | 1005.7 |
| 20260504174143 | 16 | 152 | 8.0 | 22.5 | 0.00 | 0.00 | 0.00 | 48 | 1005.7 |
| 20260504174045 | 16 | 132 | 8.0 | 22.5 | 0.00 | 0.00 | 0.00 | 48 | 1005.7 |
| 20260504173939 | 16 | 157 | 9.7 | 22.5 | 0.00 | 0.00 | 0.00 | 48 | 1005.7 |
| 20260504173902 | 16 | 224 | 9.7 | 22.5 | 0.00 | 0.00 | 0.00 | 48 | 1005.8 |
| 20260504173744 | 16 | 249 | 12.9 | 22.5 | 0.00 | 0.00 | 0.00 | 47 | 1005.8 |
| 20260504173646 | 16 | 197 | 12.9 | 22.5 | 0.00 | 0.00 | 0.00 | 47 | 1005.8 |
| 20260504173608 | 16 | 250 | 12.9 | 22.5 | 0.00 | 0.00 | 0.00 | 47 | 1005.8 |
| 20260504173428 | 16 | 113 | 9.7 | 22.5 | 0.00 | 0.00 | 0.00 | 48 | 1005.9 |
| 20260504173328 | 16 | 91 | 14.5 | 22.5 | 0.00 | 0.00 | 0.00 | 47 | 1005.8 |
| 20260504173230 | 16 | 190 | 17.7 | 22.5 | 0.00 | 0.00 | 0.00 | 48 | 1005.8 |
| 20260504173152 | 16 | 175 | 16.1 | 22.5 | 0.00 | 0.00 | 0.00 | 48 | 1005.8 |
| 20260504173115 | 16 | 194 | 14.5 | 22.5 | 0.00 | 0.00 | 0.00 | 47 | 1005.9 |
| 20260504172939 | 16 | 179 | 8.0 | 22.5 | 0.00 | 0.00 | 0.00 | 48 | 1005.8 |
| 20260504172840 | 16 | 123 | 6.4 | 22.5 | 0.00 | 0.00 | 0.00 | 48 | 1005.8 |
| 20260504172724 | 16 | 184 | 4.8 | 27.4 | 0.00 | 0.00 | 0.00 | 48 | 1005.8 |
| 20260504172647 | 15 | 242 | 8.0 | 27.4 | 0.00 | 0.00 | 0.00 | 48 | 1005.8 |
| 20260504172529 | 15 | 144 | 11.3 | 27.4 | 0.00 | 0.00 | 0.00 | 47 | 1005.8 |
| 20260504172455 | 15 | 182 | 14.5 | 27.4 | 0.00 | 0.00 | 0.00 | 47 | 1005.8 |
| 20260504172416 | 15 | 152 | 14.5 | 27.4 | 0.00 | 0.00 | 0.00 | 47 | 1005.9 |
| 20260504172259 | 15 | 211 | 8.0 | 27.4 | 0.00 | 0.00 | 0.00 | 47 | 1005.9 |
| 20260504172139 | 15 | 168 | 8.0 | 27.4 | 0.00 | 0.00 | 0.00 | 47 | 1005.9 |
| 20260504172024 | 15 | 205 | 14.5 | 27.4 | 0.00 | 0.00 | 0.00 | 47 | 1005.9 |
| 20260504171945 | 15 | 169 | 17.7 | 27.4 | 0.00 | 0.00 | 0.00 | 48 | 1005.8 |
| 20260504171744 | 15 | 132 | 12.9 | 20.9 | 0.00 | 0.00 | 0.00 | 47 | 1005.9 |
| 20260504171638 | 15 | 184 | 9.7 | 22.5 | 0.00 | 0.00 | 0.00 | 47 | 1005.9 |
| 20260504171541 | 15 | 183 | 6.4 | 22.5 | 0.00 | 0.00 | 0.00 | 48 | 1005.9 |
| 20260504171444 | 15 | 234 | 8.0 | 32.2 | 0.00 | 0.00 | 0.00 | 47 | 1005.9 |
| 20260504171349 | 15 | 215 | 8.0 | 32.2 | 0.00 | 0.00 | 0.00 | 46 | 1005.9 |
| 20260504171311 | 15 | 196 | 8.0 | 32.2 | 0.00 | 0.00 | 0.00 | 46 | 1005.9 |
| 20260504171214 | 15 | 183 | 9.7 | 32.2 | 0.00 | 0.00 | 0.00 | 47 | 1006.0 |
| 20260504171136 | 15 | 161 | 8.0 | 32.2 | 0.00 | 0.00 | 0.00 | 46 | 1005.8 |
| 20260504171007 | 15 | 172 | 11.3 | 32.2 | 0.00 | 0.00 | 0.00 | 47 | 1005.9 |
| 20260504170921 | 15 | 244 | 14.5 | 32.2 | 0.00 | 0.00 | 0.00 | 47 | 1005.9 |
| 20260504170732 | 15 | 178 | 17.7 | 32.2 | 0.00 | 0.00 | 0.00 | 47 | 1006.0 |
| 20260504170626 | 15 | 157 | 14.5 | 30.6 | 0.00 | 0.00 | 0.00 | 46 | 1005.9 |
| 20260504170550 | 15 | 173 | 11.3 | 20.9 | 0.00 | 0.00 | 0.00 | 46 | 1005.9 |
| 20260504170504 | 15 | 133 | 11.3 | 20.9 | 0.00 | 0.00 | 0.00 | 46 | 1005.9 |
| 20260504170424 | 15 | 163 | 11.3 | 20.9 | 0.00 | 0.00 | 0.00 | 46 | 1006.0 |
| 20260504170236 | 15 | 146 | 9.7 | 24.1 | 0.00 | 0.00 | 0.00 | 46 | 1006.0 |
| 20260504170131 | 15 | 179 | 12.9 | 24.1 | 0.00 | 0.00 | 0.00 | 46 | 1006.1 |
| 20260504160445 | 11 | 153 | 8.0 | 12.9 | 0.00 | 0.00 | 0.00 | 37 | 1006.9 |
| 20260504160408 | 11 | 184 | 8.0 | 12.9 | 0.00 | 0.00 | 0.00 | 36 | 1006.9 |
| 20260504160314 | 11 | 149 | 9.7 | 12.9 | 0.00 | 0.00 | 0.00 | 37 | 1007.0 |
| 20260504160236 | 11 | 167 | 8.0 | 12.9 | 0.00 | 0.00 | 0.00 | 36 | 1007.0 |
| 20260504160105 | 11 | 190 | 4.8 | 11.3 | 0.00 | 0.00 | 0.00 | 34 | 1007.0 |
| 20260504151043 | 10 | 155 | 4.8 | 9.7 | 0.00 | 0.00 | 0.00 | 38 | 1007.3 |
| 20260504150946 | 10 | 211 | 4.8 | 9.7 | 0.00 | 0.00 | 0.00 | 40 | 1007.3 |
| 20260504150846 | 10 | 219 | 6.4 | 9.7 | 0.00 | 0.00 | 0.00 | 40 | 1007.3 |
| 20260504150809 | 10 | 229 | 4.8 | 9.7 | 0.00 | 0.00 | 0.00 | 39 | 1007.2 |
| 20260504150714 | 10 | 217 | 3.2 | 9.7 | 0.00 | 0.00 | 0.00 | 40 | 1007.2 |
| 20260504150614 | 10 | 193 | 3.2 | 4.8 | 0.00 | 0.00 | 0.00 | 40 | 1007.1 |
| 20260504150519 | 10 | 193 | 3.2 | 4.8 | 0.00 | 0.00 | 0.00 | 40 | 1007.2 |
| 20260504150323 | 10 | 205 | 1.6 | 4.8 | 0.00 | 0.00 | 0.00 | 40 | 1007.2 |
| 20260504150225 | 10 | 181 | 0.0 | 4.8 | 0.00 | 0.00 | 0.00 | 40 | 1007.3 |
| 20260504150127 | 10 | 203 | 1.6 | 4.8 | 0.00 | 0.00 | 0.00 | 40 | 1007.2 |
| 20260504141333 | 10 | 194 | 11.3 | 24.1 | 0.00 | 0.00 | 0.00 | 44 | 1006.7 |
| 20260504141136 | 10 | 173 | 12.9 | 24.1 | 0.00 | 0.00 | 0.00 | 44 | 1006.7 |
| 20260504141040 | 10 | 178 | 11.3 | 24.1 | 0.00 | 0.00 | 0.00 | 44 | 1006.6 |
| 20260504140922 | 10 | 175 | 14.5 | 24.1 | 0.00 | 0.00 | 0.00 | 44 | 1006.6 |
| 20260504140849 | 10 | 204 | 14.5 | 24.1 | 0.00 | 0.00 | 0.00 | 44 | 1006.6 |
| 20260504140723 | 10 | 176 | 11.3 | 22.5 | 0.00 | 0.00 | 0.00 | 43 | 1006.7 |
| 20260504140647 | 10 | 229 | 9.7 | 22.5 | 0.00 | 0.00 | 0.00 | 43 | 1006.7 |
| 20260504140530 | 10 | 216 | 8.0 | 22.5 | 0.00 | 0.00 | 0.00 | 43 | 1006.7 |
| 20260504140412 | 10 | 164 | 8.0 | 22.5 | 0.00 | 0.00 | 0.00 | 43 | 1006.7 |
| 20260504140346 | 10 | 167 | 8.0 | 22.5 | 0.00 | 0.00 | 0.00 | 44 | 1006.7 |
| 20260504140240 | 10 | 145 | 9.7 | 22.5 | 0.00 | 0.00 | 0.00 | 44 | 1006.7 |
| 20260504140204 | 10 | 153 | 11.3 | 22.5 | 0.00 | 0.00 | 0.00 | 44 | 1006.7 |
| 20260504140111 | 10 | 205 | 14.5 | 22.5 | 0.00 | 0.00 | 0.00 | 44 | 1006.7 |
| 20260504130821 | 10 | 174 | 12.9 | 30.6 | 0.00 | 0.00 | 0.00 | 40 | 1006.5 |
| 20260504130628 | 10 | 165 | 11.3 | 30.6 | 0.00 | 0.00 | 0.00 | 40 | 1006.4 |
| 20260504130550 | 10 | 234 | 14.5 | 30.6 | 0.00 | 0.00 | 0.00 | 40 | 1006.4 |
| 20260504130456 | 10 | 179 | 16.1 | 30.6 | 0.00 | 0.00 | 0.00 | 40 | 1006.4 |
| 20260504130417 | 10 | 150 | 17.7 | 33.8 | 0.00 | 0.00 | 0.00 | 40 | 1006.5 |
| 20260504130247 | 10 | 178 | 17.7 | 30.6 | 0.00 | 0.00 | 0.00 | 40 | 1006.4 |
| 20260504130142 | 10 | 172 | 16.1 | 30.6 | 0.00 | 0.00 | 0.00 | 39 | 1006.4 |
| 20260504130115 | 10 | 166 | 16.1 | 30.6 | 0.00 | 0.00 | 0.00 | 39 | 1006.5 |
| 20260504120238 | 9 | 175 | 12.9 | 29.0 | 0.00 | 0.00 | 0.00 | 23 | 1006.5 |
| 20260504120126 | 9 | 177 | 12.9 | 29.0 | 0.00 | 0.00 | 0.00 | 22 | 1006.5 |
| 20260504110659 | 8 | 162 | 12.9 | 24.1 | 0.00 | 0.00 | 0.00 | 1 | 1006.9 |
| 20260504110622 | 8 | 144 | 12.9 | 24.1 | 0.00 | 0.00 | 0.00 | 1 | 1006.8 |
| 20260504110505 | 8 | 157 | 12.9 | 24.1 | 0.00 | 0.00 | 0.00 | 1 | 1006.8 |
| 20260504110405 | 8 | 164 | 11.3 | 24.1 | 0.00 | 0.00 | 0.00 | 1 | 1006.8 |
| 20260504110217 | 8 | 162 | 11.3 | 24.1 | 0.00 | 0.00 | 0.00 | 1 | 1006.8 |
| 20260504110134 | 8 | 179 | 11.3 | 24.1 | 0.00 | 0.00 | 0.00 | 1 | 1006.8 |
| 20260504100534 | 7 | 180 | 8.0 | 16.1 | 0.00 | 0.00 | 0.00 | 1 | 1006.9 |
| 20260504100456 | 7 | 194 | 9.7 | 16.1 | 0.00 | 0.00 | 0.00 | 1 | 1006.9 |
| 20260504100418 | 7 | 186 | 9.7 | 16.1 | 0.00 | 0.00 | 0.00 | 1 | 1006.9 |
| 20260504100311 | 7 | 181 | 9.7 | 16.1 | 0.00 | 0.00 | 0.00 | 1 | 1007.0 |
| 20260504100120 | 7 | 116 | 9.7 | 16.1 | 0.00 | 0.00 | 0.00 | 1 | 1007.0 |
| 20260504090116 | 7 | 194 | 8.0 | 16.1 | 0.00 | 0.00 | 0.00 | 1 | 1007.3 |